Time,TemperatureF,DewpointF,PressureIn,WindDirection,WindDirectionDegrees,WindSpeedMPH,WindSpeedGustMPH,Humidity,HourlyPrecipIn,Conditions,Clouds,dailyrainin,SoftwareType,DateUTC
2013-02-06 00:01:00,54.5,31.3,29.44,SSE,151,0.0,0.0,41,0.00,,---,0.00,VWS V14.00,2013-02-06 06:01:00,
2013-02-06 00:06:00,54.3,31.1,29.44,SSE,151,0.0,0.0,41,0.00,,---,0.00,VWS V14.00,2013-02-06 06:06:00,
2013-02-06 00:11:00,54.3,31.1,29.44,SSE,151,0.0,0.0,41,0.00,,---,0.00,VWS V14.00,2013-02-06 06:11:00,
2013-02-06 00:16:00,54.0,30.8,29.44,SSE,150,2.7,2.7,41,0.00,,---,0.00,VWS V14.00,2013-02-06 06:16:00,
2013-02-06 00:21:00,54.0,30.8,29.44,SSE,150,2.2,2.2,41,0.00,,---,0.00,VWS V14.00,2013-02-06 06:21:00,
2013-02-06 00:26:00,53.6,30.5,29.44,SSE,150,0.0,0.0,41,0.00,,---,0.00,VWS V14.00,2013-02-06 06:26:00,
2013-02-06 00:27:00,53.6,30.5,29.44,SSE,150,0.0,0.0,41,0.00,,---,0.00,VWS V14.00,2013-02-06 06:27:00,
2013-02-06 00:31:00,53.6,30.5,29.41,SE,145,2.7,2.7,41,0.00,,---,0.00,VWS V14.00,2013-02-06 06:31:00,
2013-02-06 00:32:00,53.4,30.3,29.41,SE,140,2.2,2.7,41,0.00,,---,0.00,VWS V14.00,2013-02-06 06:32:00,
2013-02-06 00:36:00,53.4,30.3,29.41,East,99,4.0,4.0,41,0.00,,---,0.00,VWS V14.00,2013-02-06 06:36:00,
2013-02-06 00:37:00,53.4,30.3,29.41,SE,133,2.7,4.0,41,0.00,,---,0.00,VWS V14.00,2013-02-06 06:37:00,
2013-02-06 00:41:00,53.6,30.5,29.41,East,93,3.6,3.6,41,0.00,,---,0.00,VWS V14.00,2013-02-06 06:41:00,
2013-02-06 00:42:00,53.6,30.5,29.41,East,93,3.6,3.6,41,0.00,,---,0.00,VWS V14.00,2013-02-06 06:42:00,
2013-02-06 00:46:00,53.6,30.5,29.41,ESE,112,0.0,0.0,41,0.00,,---,0.00,VWS V14.00,2013-02-06 06:46:00,
2013-02-06 00:47:00,53.6,30.5,29.41,ESE,112,0.0,0.0,41,0.00,,---,0.00,VWS V14.00,2013-02-06 06:47:00,
2013-02-06 00:51:00,53.6,30.5,29.41,ESE,120,2.7,2.7,41,0.00,,---,0.00,VWS V14.00,2013-02-06 06:51:00,
2013-02-06 00:52:00,53.8,30.6,29.41,ESE,102,4.0,4.0,41,0.00,,---,0.00,VWS V14.00,2013-02-06 06:52:00,
2013-02-06 00:56:00,53.8,31.2,29.41,ESE,110,2.2,2.2,42,0.00,,---,0.00,VWS V14.00,2013-02-06 06:56:00,
2013-02-06 00:57:00,53.8,31.2,29.41,ESE,102,2.7,2.7,42,0.00,,---,0.00,VWS V14.00,2013-02-06 06:57:00,
2013-02-06 01:01:00,53.6,31.1,29.41,ESE,111,2.7,3.1,42,0.00,,---,0.00,VWS V14.00,2013-02-06 07:01:00,
2013-02-06 01:02:00,53.6,31.1,29.41,ESE,104,4.0,4.0,42,0.00,,---,0.00,VWS V14.00,2013-02-06 07:02:00,
2013-02-06 01:03:00,53.6,31.1,29.41,ESE,104,4.0,4.0,42,0.00,,---,0.00,VWS V14.00,2013-02-06 07:03:00,
2013-02-06 01:06:00,53.6,31.1,29.41,ESE,102,2.7,3.6,42,0.00,,---,0.00,VWS V14.00,2013-02-06 07:06:00,
2013-02-06 01:07:00,53.6,31.1,29.41,ESE,102,2.7,2.7,42,0.00,,---,0.00,VWS V14.00,2013-02-06 07:07:00,
2013-02-06 01:08:00,53.6,31.1,29.41,ESE,102,2.7,2.7,42,0.00,,---,0.00,VWS V14.00,2013-02-06 07:08:00,
2013-02-06 01:11:00,53.8,31.2,29.41,East,94,4.0,4.0,42,0.00,,---,0.00,VWS V14.00,2013-02-06 07:11:00,
2013-02-06 01:12:00,53.8,31.2,29.41,ESE,106,3.6,4.0,42,0.00,,---,0.00,VWS V14.00,2013-02-06 07:12:00,
2013-02-06 01:13:00,53.8,31.2,29.41,ESE,106,3.6,3.6,42,0.00,,---,0.00,VWS V14.00,2013-02-06 07:13:00,
2013-02-06 01:16:00,53.8,31.2,29.41,ESE,123,2.7,2.7,42,0.00,,---,0.00,VWS V14.00,2013-02-06 07:16:00,
2013-02-06 01:17:00,53.6,31.1,29.41,ESE,123,0.0,2.7,42,0.00,,---,0.00,VWS V14.00,2013-02-06 07:17:00,
2013-02-06 01:18:00,53.6,31.1,29.41,ESE,123,0.0,2.7,42,0.00,,---,0.00,VWS V14.00,2013-02-06 07:18:00,
2013-02-06 01:21:00,53.6,31.1,29.41,ESE,115,2.2,2.7,42,0.00,,---,0.00,VWS V14.00,2013-02-06 07:21:00,
2013-02-06 01:22:00,53.6,31.1,29.41,ESE,115,2.2,2.2,42,0.00,,---,0.00,VWS V14.00,2013-02-06 07:22:00,
2013-02-06 01:23:00,53.6,31.1,29.41,ESE,115,2.2,2.2,42,0.00,,---,0.00,VWS V14.00,2013-02-06 07:23:00,
2013-02-06 01:26:00,53.4,31.5,29.41,ESE,108,0.0,2.2,43,0.00,,---,0.00,VWS V14.00,2013-02-06 07:26:00,
2013-02-06 01:27:00,53.4,31.5,29.41,ESE,108,0.0,0.0,43,0.00,,---,0.00,VWS V14.00,2013-02-06 07:27:00,
2013-02-06 01:28:00,53.4,31.5,29.41,ESE,108,0.0,0.0,43,0.00,,---,0.00,VWS V14.00,2013-02-06 07:28:00,
2013-02-06 01:31:00,53.4,31.5,29.41,ESE,104,3.1,3.1,43,0.00,,---,0.00,VWS V14.00,2013-02-06 07:31:00,
2013-02-06 01:32:00,53.4,31.5,29.41,ESE,104,3.1,3.1,43,0.00,,---,0.00,VWS V14.00,2013-02-06 07:32:00,
2013-02-06 01:33:00,53.4,31.5,29.41,ESE,104,3.1,3.1,43,0.00,,---,0.00,VWS V14.00,2013-02-06 07:33:00,
2013-02-06 01:36:00,53.4,31.5,29.41,East,99,3.1,3.1,43,0.00,,---,0.00,VWS V14.00,2013-02-06 07:36:00,
2013-02-06 01:37:00,53.4,31.5,29.41,East,88,2.7,3.1,43,0.00,,---,0.00,VWS V14.00,2013-02-06 07:37:00,
2013-02-06 01:38:00,53.4,31.5,29.41,East,88,2.7,3.1,43,0.00,,---,0.00,VWS V14.00,2013-02-06 07:38:00,
2013-02-06 01:42:00,53.6,31.7,29.41,ESE,116,4.0,4.0,43,99.99,,---,99.99,VWS V14.00,2013-02-06 07:42:00,
2013-02-06 01:43:00,53.6,31.7,29.41,ESE,110,2.7,4.0,43,99.99,,---,99.99,VWS V14.00,2013-02-06 07:43:00,
2013-02-06 01:44:00,53.8,31.8,29.41,ESE,118,4.0,4.0,43,99.99,,---,99.99,VWS V14.00,2013-02-06 07:44:00,
2013-02-06 01:47:00,54.0,32.6,29.41,ESE,118,2.7,3.6,44,99.99,,---,99.99,VWS V14.00,2013-02-06 07:47:00,
2013-02-06 01:48:00,54.0,32.6,29.41,ESE,118,2.7,3.6,44,99.99,,---,99.99,VWS V14.00,2013-02-06 07:48:00,
2013-02-06 01:49:00,54.1,32.7,29.41,ESE,118,2.7,2.7,44,99.99,,---,99.99,VWS V14.00,2013-02-06 07:49:00,
2013-02-06 01:52:00,54.1,33.3,29.41,ESE,112,2.7,2.7,45,99.99,,---,99.99,VWS V14.00,2013-02-06 07:52:00,
2013-02-06 01:53:00,54.1,33.3,29.41,ESE,118,2.2,2.2,45,99.99,,---,99.99,VWS V14.00,2013-02-06 07:53:00,
2013-02-06 01:54:00,54.1,33.3,29.41,ESE,121,0.0,2.2,45,99.99,,---,99.99,VWS V14.00,2013-02-06 07:54:00,
2013-02-06 01:57:00,54.1,33.3,29.41,SE,134,2.7,3.1,45,99.99,,---,99.99,VWS V14.00,2013-02-06 07:57:00,
2013-02-06 01:58:00,54.1,33.3,29.41,SE,134,2.7,2.7,45,99.99,,---,99.99,VWS V14.00,2013-02-06 07:58:00,
2013-02-06 01:59:00,54.1,33.3,29.41,SE,134,2.7,2.7,45,99.99,,---,99.99,VWS V14.00,2013-02-06 07:59:00,
2013-02-06 02:02:00,54.1,33.3,29.41,SE,129,2.2,2.2,45,99.99,,---,99.99,VWS V14.00,2013-02-06 08:02:00,
2013-02-06 02:03:00,54.1,33.3,29.41,SSE,148,0.0,3.1,45,99.99,,---,99.99,VWS V14.00,2013-02-06 08:03:00,
2013-02-06 02:04:00,54.1,33.3,29.41,SSE,148,0.0,0.0,45,99.99,,---,99.99,VWS V14.00,2013-02-06 08:04:00,
2013-02-06 02:07:00,54.1,33.3,29.41,SSE,153,4.0,4.0,45,99.99,,---,99.99,VWS V14.00,2013-02-06 08:07:00,
2013-02-06 02:08:00,54.1,33.3,29.41,SSE,152,3.1,4.0,45,99.99,,---,99.99,VWS V14.00,2013-02-06 08:08:00,
2013-02-06 02:09:00,54.1,33.3,29.41,SSE,165,2.7,3.1,45,99.99,,---,99.99,VWS V14.00,2013-02-06 08:09:00,
2013-02-06 02:12:00,54.1,33.3,29.41,SE,132,2.7,4.0,45,99.99,,---,99.99,VWS V14.00,2013-02-06 08:12:00,
2013-02-06 02:13:00,54.1,33.3,29.41,SE,132,2.7,2.7,45,99.99,,---,99.99,VWS V14.00,2013-02-06 08:13:00,
2013-02-06 02:14:00,54.3,34.0,29.41,SE,132,2.7,2.7,46,99.99,,---,99.99,VWS V14.00,2013-02-06 08:14:00,
2013-02-06 02:17:00,54.3,34.0,29.41,SSE,154,3.1,3.1,46,99.99,,---,99.99,VWS V14.00,2013-02-06 08:17:00,
2013-02-06 02:18:00,54.3,34.0,29.41,SE,129,0.0,3.1,46,99.99,,---,99.99,VWS V14.00,2013-02-06 08:18:00,
2013-02-06 02:19:00,54.3,34.0,29.41,SE,131,3.1,3.1,46,99.99,,---,99.99,VWS V14.00,2013-02-06 08:19:00,
2013-02-06 02:22:00,54.3,34.0,29.41,SSE,149,3.6,3.6,46,99.99,,---,99.99,VWS V14.00,2013-02-06 08:22:00,
2013-02-06 02:23:00,54.3,34.0,29.41,ESE,122,3.1,3.6,46,99.99,,---,99.99,VWS V14.00,2013-02-06 08:23:00,
2013-02-06 02:24:00,54.3,34.0,29.41,SE,140,2.7,3.1,46,99.99,,---,99.99,VWS V14.00,2013-02-06 08:24:00,
2013-02-06 02:28:00,54.3,34.0,29.41,SE,139,3.1,3.1,46,99.99,,---,99.99,VWS V14.00,2013-02-06 08:28:00,
2013-02-06 02:29:00,54.3,34.0,29.41,SE,126,2.7,3.1,46,99.99,,---,99.99,VWS V14.00,2013-02-06 08:29:00,
2013-02-06 02:33:00,54.1,33.8,29.41,East,101,2.7,2.7,46,99.99,,---,99.99,VWS V14.00,2013-02-06 08:33:00,
2013-02-06 02:34:00,54.1,33.8,29.41,SE,124,3.6,3.6,46,99.99,,---,99.99,VWS V14.00,2013-02-06 08:34:00,
2013-02-06 02:35:00,54.1,33.8,29.41,ESE,122,2.2,3.6,46,99.99,,---,99.99,VWS V14.00,2013-02-06 08:35:00,
2013-02-06 02:38:00,54.1,34.4,29.41,ESE,103,3.1,3.1,47,99.99,,---,99.99,VWS V14.00,2013-02-06 08:38:00,
2013-02-06 02:39:00,54.1,34.4,29.41,ESE,103,3.1,3.1,47,0.00,,---,99.99,VWS V14.00,2013-02-06 08:39:00,
2013-02-06 02:40:00,54.1,34.4,29.41,ESE,103,3.1,3.1,47,0.00,,---,99.99,VWS V14.00,2013-02-06 08:40:00,
2013-02-06 02:43:00,54.1,34.4,29.41,ESE,116,0.0,0.0,47,0.00,,---,99.99,VWS V14.00,2013-02-06 08:43:00,
2013-02-06 02:44:00,54.1,34.4,29.41,ESE,116,0.0,0.0,47,0.00,,---,99.99,VWS V14.00,2013-02-06 08:44:00,
2013-02-06 02:45:00,54.1,34.4,29.41,ESE,116,2.2,2.2,47,0.00,,---,99.99,VWS V14.00,2013-02-06 08:45:00,
2013-02-06 02:48:00,54.1,34.4,29.41,ESE,119,0.0,2.2,47,0.00,,---,99.99,VWS V14.00,2013-02-06 08:48:00,
2013-02-06 02:49:00,54.1,34.4,29.41,ESE,119,2.7,2.7,47,0.00,,---,99.99,VWS V14.00,2013-02-06 08:49:00,
2013-02-06 02:50:00,54.1,34.4,29.41,SE,124,0.0,2.7,47,0.00,,---,99.99,VWS V14.00,2013-02-06 08:50:00,
2013-02-06 02:53:00,54.0,34.2,29.41,SE,124,0.0,0.0,47,0.00,,---,99.99,VWS V14.00,2013-02-06 08:53:00,
2013-02-06 02:54:00,54.0,34.2,29.41,SE,124,0.0,2.2,47,0.00,,---,99.99,VWS V14.00,2013-02-06 08:54:00,
2013-02-06 02:55:00,54.0,34.2,29.41,SE,124,0.0,2.2,47,0.00,,---,99.99,VWS V14.00,2013-02-06 08:55:00,
2013-02-06 02:58:00,54.0,34.2,29.41,SE,124,0.0,0.0,47,0.00,,---,99.99,VWS V14.00,2013-02-06 08:58:00,
2013-02-06 02:59:00,54.0,34.2,29.41,SE,131,3.6,3.6,47,99.99,,---,99.99,VWS V14.00,2013-02-06 08:59:00,
2013-02-06 03:00:00,54.0,34.2,29.41,SE,131,3.6,3.6,47,99.99,,---,99.99,VWS V14.00,2013-02-06 09:00:00,
2013-02-06 03:03:00,54.0,34.2,29.41,ESE,110,0.0,0.0,47,99.99,,---,99.99,VWS V14.00,2013-02-06 09:03:00,
2013-02-06 03:04:00,54.0,34.2,29.41,SE,135,3.1,3.1,47,99.99,,---,99.99,VWS V14.00,2013-02-06 09:04:00,
2013-02-06 03:05:00,54.0,34.2,29.41,SE,135,3.1,3.1,47,99.99,,---,99.99,VWS V14.00,2013-02-06 09:05:00,
2013-02-06 03:08:00,54.0,34.7,29.41,SE,132,0.0,3.1,48,99.99,,---,99.99,VWS V14.00,2013-02-06 09:08:00,
2013-02-06 03:09:00,54.0,34.7,29.41,ESE,121,0.0,3.1,48,99.99,,---,99.99,VWS V14.00,2013-02-06 09:09:00,
2013-02-06 03:10:00,54.0,34.7,29.41,ESE,121,0.0,3.1,48,99.99,,---,99.99,VWS V14.00,2013-02-06 09:10:00,
2013-02-06 03:13:00,54.0,34.7,29.41,ESE,121,0.0,0.0,48,99.99,,---,99.99,VWS V14.00,2013-02-06 09:13:00,
2013-02-06 03:14:00,54.0,34.7,29.41,ESE,121,0.0,0.0,48,99.99,,---,99.99,VWS V14.00,2013-02-06 09:14:00,
2013-02-06 03:15:00,54.0,34.7,29.41,ESE,121,0.0,0.0,48,99.99,,---,99.99,VWS V14.00,2013-02-06 09:15:00,
2013-02-06 03:18:00,54.0,34.7,29.41,SE,143,2.2,2.2,48,99.99,,---,99.99,VWS V14.00,2013-02-06 09:18:00,
2013-02-06 03:19:00,54.0,34.7,29.41,SE,146,0.0,2.7,48,99.99,,---,99.99,VWS V14.00,2013-02-06 09:19:00,
2013-02-06 03:20:00,54.0,34.7,29.41,SE,146,0.0,2.7,48,99.99,,---,99.99,VWS V14.00,2013-02-06 09:20:00,
2013-02-06 03:23:00,54.0,35.2,29.41,SE,137,3.1,3.1,49,99.99,,---,99.99,VWS V14.00,2013-02-06 09:23:00,
2013-02-06 03:24:00,54.0,35.2,29.41,SE,137,2.7,3.1,49,99.99,,---,99.99,VWS V14.00,2013-02-06 09:24:00,
2013-02-06 03:25:00,54.1,35.4,29.41,SE,137,2.7,2.7,49,99.99,,---,99.99,VWS V14.00,2013-02-06 09:25:00,
2013-02-06 03:28:00,54.1,35.4,29.41,SE,129,2.7,2.7,49,99.99,,---,99.99,VWS V14.00,2013-02-06 09:28:00,
2013-02-06 03:29:00,54.1,35.4,29.41,SE,129,2.7,2.7,49,99.99,,---,99.99,VWS V14.00,2013-02-06 09:29:00,
2013-02-06 03:30:00,54.1,35.4,29.41,SE,129,2.7,2.7,49,99.99,,---,99.99,VWS V14.00,2013-02-06 09:30:00,
2013-02-06 03:31:00,54.1,35.4,29.41,SE,130,3.6,4.0,49,99.99,,---,99.99,VWS V14.00,2013-02-06 09:31:00,
2013-02-06 03:33:00,54.1,35.4,29.41,SSE,150,3.1,3.1,49,99.99,,---,99.99,VWS V14.00,2013-02-06 09:33:00,
2013-02-06 03:34:00,54.1,35.9,29.41,SSE,149,0.0,0.0,50,99.99,,---,99.99,VWS V14.00,2013-02-06 09:34:00,
2013-02-06 03:35:00,54.1,35.9,29.41,ESE,123,0.0,3.1,50,99.99,,---,99.99,VWS V14.00,2013-02-06 09:35:00,
2013-02-06 03:36:00,54.1,35.9,29.41,ESE,123,2.7,3.1,50,99.99,,---,99.99,VWS V14.00,2013-02-06 09:36:00,
2013-02-06 03:38:00,54.1,35.9,29.41,SE,126,2.7,2.7,50,99.99,,---,99.99,VWS V14.00,2013-02-06 09:38:00,
2013-02-06 03:39:00,54.1,35.9,29.41,SE,139,0.0,2.7,50,99.99,,---,99.99,VWS V14.00,2013-02-06 09:39:00,
2013-02-06 03:40:00,54.3,36.1,29.41,ESE,105,2.2,2.2,50,99.99,,---,99.99,VWS V14.00,2013-02-06 09:40:00,
2013-02-06 03:41:00,54.3,36.1,29.41,ESE,105,2.7,2.7,50,99.99,,---,99.99,VWS V14.00,2013-02-06 09:41:00,
2013-02-06 03:43:00,54.3,36.6,29.41,ESE,103,0.0,0.0,51,99.99,,---,99.99,VWS V14.00,2013-02-06 09:43:00,
2013-02-06 03:45:00,54.3,36.6,29.41,SE,128,0.0,2.7,51,99.99,,---,99.99,VWS V14.00,2013-02-06 09:45:00,
2013-02-06 03:46:00,54.3,36.6,29.41,SE,128,0.0,2.2,51,99.99,,---,99.99,VWS V14.00,2013-02-06 09:46:00,
2013-02-06 03:49:00,54.3,36.6,29.41,SE,146,4.0,4.0,51,99.99,,---,99.99,VWS V14.00,2013-02-06 09:49:00,
2013-02-06 03:50:00,54.3,36.6,29.41,ESE,123,2.7,2.7,51,99.99,,---,99.99,VWS V14.00,2013-02-06 09:50:00,
2013-02-06 03:51:00,54.3,36.6,29.41,SE,133,2.7,2.7,51,99.99,,---,99.99,VWS V14.00,2013-02-06 09:51:00,
2013-02-06 03:54:00,54.3,37.1,29.41,East,98,4.0,4.0,52,99.99,,---,99.99,VWS V14.00,2013-02-06 09:54:00,
2013-02-06 03:55:00,54.3,37.1,29.41,ESE,110,4.0,4.0,52,99.99,,---,99.99,VWS V14.00,2013-02-06 09:55:00,
2013-02-06 03:56:00,54.3,37.1,29.41,ESE,110,4.0,4.0,52,99.99,,---,99.99,VWS V14.00,2013-02-06 09:56:00,
2013-02-06 03:59:00,54.3,37.1,29.41,SE,138,0.0,2.7,52,99.99,,---,99.99,VWS V14.00,2013-02-06 09:59:00,
2013-02-06 04:00:00,54.3,36.6,29.41,SSE,158,3.1,3.1,51,0.00,,---,99.99,VWS V14.00,2013-02-06 10:00:00,
2013-02-06 04:01:00,54.3,36.6,29.41,SSE,158,3.1,3.1,51,0.00,,---,99.99,VWS V14.00,2013-02-06 10:01:00,
2013-02-06 04:04:00,54.3,36.6,29.41,ESE,111,3.6,3.6,51,0.00,,---,99.99,VWS V14.00,2013-02-06 10:04:00,
2013-02-06 04:05:00,54.3,36.6,29.38,ESE,111,3.6,3.6,51,0.00,,---,99.99,VWS V14.00,2013-02-06 10:05:00,
2013-02-06 04:06:00,54.3,36.6,29.38,ESE,111,3.6,3.6,51,0.00,,---,99.99,VWS V14.00,2013-02-06 10:06:00,
2013-02-06 04:09:00,54.3,37.1,29.38,SE,130,0.0,0.0,52,0.00,,---,99.99,VWS V14.00,2013-02-06 10:09:00,
2013-02-06 04:10:00,54.3,37.1,29.38,SE,130,0.0,0.0,52,0.00,,---,99.99,VWS V14.00,2013-02-06 10:10:00,
2013-02-06 04:11:00,54.3,37.1,29.38,SE,142,0.0,0.0,52,0.00,,---,99.99,VWS V14.00,2013-02-06 10:11:00,
2013-02-06 04:14:00,54.5,37.2,29.38,SE,141,0.0,0.0,52,0.00,,---,99.99,VWS V14.00,2013-02-06 10:14:00,
2013-02-06 04:15:00,54.5,37.2,29.38,SE,141,0.0,0.0,52,0.00,,---,99.99,VWS V14.00,2013-02-06 10:15:00,
2013-02-06 04:16:00,54.5,37.2,29.38,SE,141,0.0,0.0,52,0.00,,---,99.99,VWS V14.00,2013-02-06 10:16:00,
2013-02-06 04:17:00,54.5,37.2,29.38,SE,141,0.0,0.0,52,0.00,,---,99.99,VWS V14.00,2013-02-06 10:17:00,
2013-02-06 04:19:00,54.7,37.9,29.38,SE,141,0.0,0.0,53,0.00,,---,0.00,VWS V14.00,2013-02-06 10:19:00,
2013-02-06 04:20:00,54.9,38.1,29.38,SE,141,0.0,0.0,53,0.00,,---,0.00,VWS V14.00,2013-02-06 10:20:00,
2013-02-06 04:21:00,54.9,38.1,29.38,SE,141,0.0,0.0,53,0.00,,---,0.00,VWS V14.00,2013-02-06 10:21:00,
2013-02-06 04:22:00,54.9,38.1,29.38,SE,141,0.0,0.0,53,0.00,,---,0.00,VWS V14.00,2013-02-06 10:22:00,
2013-02-06 04:25:00,54.9,38.1,29.38,SSE,147,2.7,2.7,53,0.00,,---,0.00,VWS V14.00,2013-02-06 10:25:00,
2013-02-06 04:26:00,54.9,38.1,29.38,SSE,147,2.7,2.7,53,0.00,,---,0.00,VWS V14.00,2013-02-06 10:26:00,
2013-02-06 04:27:00,54.9,38.1,29.38,SSE,147,2.7,2.7,53,0.00,,---,0.00,VWS V14.00,2013-02-06 10:27:00,
2013-02-06 04:30:00,55.0,38.2,29.38,SSE,148,0.0,0.0,53,0.00,,---,0.00,VWS V14.00,2013-02-06 10:30:00,
2013-02-06 04:31:00,55.0,38.2,29.38,SSE,148,2.2,2.2,53,0.00,,---,0.00,VWS V14.00,2013-02-06 10:31:00,
2013-02-06 04:32:00,55.0,38.2,29.38,SSE,148,2.2,2.2,53,0.00,,---,0.00,VWS V14.00,2013-02-06 10:32:00,
2013-02-06 04:35:00,55.2,38.4,29.38,SSE,147,0.0,0.0,53,0.00,,---,0.00,VWS V14.00,2013-02-06 10:35:00,
2013-02-06 04:36:00,55.2,38.4,29.38,SSE,148,0.0,0.0,53,0.00,,---,0.00,VWS V14.00,2013-02-06 10:36:00,
2013-02-06 04:37:00,55.2,38.4,29.38,SSE,148,0.0,0.0,53,0.00,,---,0.00,VWS V14.00,2013-02-06 10:37:00,
2013-02-06 04:40:00,55.2,38.4,29.38,South,170,2.2,2.2,53,0.00,,---,0.00,VWS V14.00,2013-02-06 10:40:00,
2013-02-06 04:41:00,55.2,38.4,29.38,South,170,2.2,2.2,53,0.00,,---,0.00,VWS V14.00,2013-02-06 10:41:00,
2013-02-06 04:45:00,55.6,38.7,29.38,SSE,160,2.2,2.2,53,0.00,,---,0.00,VWS V14.00,2013-02-06 10:45:00,
2013-02-06 04:47:00,55.6,38.7,29.38,SSE,160,2.2,2.2,53,0.00,,---,0.00,VWS V14.00,2013-02-06 10:47:00,
2013-02-06 04:50:00,55.6,38.7,29.38,SSE,165,0.0,0.0,53,0.00,,---,0.00,VWS V14.00,2013-02-06 10:50:00,
2013-02-06 04:51:00,55.6,38.7,29.38,SSE,165,0.0,0.0,53,0.00,,---,0.00,VWS V14.00,2013-02-06 10:51:00,
2013-02-06 04:52:00,55.6,38.7,29.38,SSE,152,4.0,4.0,53,0.00,,---,0.00,VWS V14.00,2013-02-06 10:52:00,
2013-02-06 04:55:00,55.8,38.9,29.41,South,175,3.6,3.6,53,0.00,,---,0.00,VWS V14.00,2013-02-06 10:55:00,
2013-02-06 04:56:00,55.8,38.9,29.41,South,175,3.6,3.6,53,0.00,,---,0.00,VWS V14.00,2013-02-06 10:56:00,
2013-02-06 04:57:00,55.8,38.9,29.41,South,174,2.2,2.2,53,0.00,,---,0.00,VWS V14.00,2013-02-06 10:57:00,
2013-02-06 05:01:00,55.9,39.1,29.41,SSE,159,2.7,2.7,53,0.00,,---,0.00,VWS V14.00,2013-02-06 11:01:00,
2013-02-06 05:02:00,55.9,39.1,29.41,SSE,159,2.7,2.7,53,0.00,,---,0.00,VWS V14.00,2013-02-06 11:02:00,
2013-02-06 05:06:00,55.9,39.1,29.41,SSE,162,2.7,2.7,53,0.00,,---,0.00,VWS V14.00,2013-02-06 11:06:00,
2013-02-06 05:07:00,55.9,39.1,29.41,SSE,157,2.2,3.1,53,0.00,,---,0.00,VWS V14.00,2013-02-06 11:07:00,
2013-02-06 05:08:00,55.9,39.1,29.41,SSE,156,2.7,2.7,53,0.00,,---,0.00,VWS V14.00,2013-02-06 11:08:00,
2013-02-06 05:10:00,56.1,39.2,29.41,SSE,156,2.7,2.7,53,0.00,,---,0.00,VWS V14.00,2013-02-06 11:10:00,
2013-02-06 05:11:00,56.1,39.2,29.41,SSE,156,2.7,2.7,53,0.00,,---,0.00,VWS V14.00,2013-02-06 11:11:00,
2013-02-06 05:12:00,56.1,39.2,29.41,SSE,156,2.7,2.7,53,0.00,,---,0.00,VWS V14.00,2013-02-06 11:12:00,
2013-02-06 05:13:00,56.1,39.7,29.41,SSE,156,2.7,2.7,54,0.00,,---,0.00,VWS V14.00,2013-02-06 11:13:00,
2013-02-06 05:16:00,56.1,39.7,29.41,SSE,156,2.7,2.7,54,0.00,,---,0.00,VWS V14.00,2013-02-06 11:16:00,
2013-02-06 05:17:00,56.1,39.7,29.41,SSE,156,2.7,2.7,54,0.00,,---,0.00,VWS V14.00,2013-02-06 11:17:00,
2013-02-06 05:18:00,56.3,39.9,29.41,SSE,164,3.6,3.6,54,0.00,,---,0.00,VWS V14.00,2013-02-06 11:18:00,
2013-02-06 05:21:00,56.3,39.9,29.41,SSE,158,2.2,3.6,54,0.00,,---,0.00,VWS V14.00,2013-02-06 11:21:00,
2013-02-06 05:22:00,56.3,39.9,29.41,ESE,121,0.0,0.0,54,0.00,,---,0.00,VWS V14.00,2013-02-06 11:22:00,
2013-02-06 05:23:00,56.3,39.9,29.41,SSE,151,2.2,4.0,54,0.00,,---,0.00,VWS V14.00,2013-02-06 11:23:00,
2013-02-06 05:26:00,56.3,39.9,29.41,SSE,151,0.0,0.0,54,0.00,,---,0.00,VWS V14.00,2013-02-06 11:26:00,
2013-02-06 05:27:00,56.3,39.9,29.41,SSE,151,0.0,0.0,54,0.00,,---,0.00,VWS V14.00,2013-02-06 11:27:00,
2013-02-06 05:28:00,56.3,39.9,29.41,SSE,151,0.0,0.0,54,0.00,,---,0.00,VWS V14.00,2013-02-06 11:28:00,
2013-02-06 05:31:00,56.3,39.9,29.41,SSE,151,0.0,0.0,54,0.00,,---,0.00,VWS V14.00,2013-02-06 11:31:00,
2013-02-06 05:32:00,56.3,39.9,29.41,SSE,151,0.0,0.0,54,0.00,,---,0.00,VWS V14.00,2013-02-06 11:32:00,
2013-02-06 05:34:00,56.3,39.9,29.41,SSE,151,0.0,0.0,54,0.00,,---,0.00,VWS V14.00,2013-02-06 11:34:00,
2013-02-06 05:36:00,56.3,39.9,29.41,SSE,151,0.0,0.0,54,0.00,,---,0.00,VWS V14.00,2013-02-06 11:36:00,
2013-02-06 05:37:00,56.5,40.0,29.41,SSE,151,0.0,0.0,54,0.00,,---,0.00,VWS V14.00,2013-02-06 11:37:00,
2013-02-06 05:39:00,56.5,40.0,29.41,SSE,151,0.0,0.0,54,0.00,,---,0.00,VWS V14.00,2013-02-06 11:39:00,
2013-02-06 05:41:00,56.5,40.0,29.41,SSE,151,0.0,0.0,54,0.00,,---,0.00,VWS V14.00,2013-02-06 11:41:00,
2013-02-06 05:42:00,56.5,40.0,29.41,SSE,151,0.0,0.0,54,0.00,,---,0.00,VWS V14.00,2013-02-06 11:42:00,
2013-02-06 05:43:00,56.5,40.0,29.41,SSE,151,0.0,0.0,54,0.00,,---,0.00,VWS V14.00,2013-02-06 11:43:00,
2013-02-06 05:44:00,56.5,40.0,29.41,SSE,151,0.0,0.0,54,0.00,,---,0.00,VWS V14.00,2013-02-06 11:44:00,
2013-02-06 05:46:00,56.5,40.0,29.41,SSE,151,0.0,0.0,54,0.00,,---,0.00,VWS V14.00,2013-02-06 11:46:00,
2013-02-06 05:47:00,56.5,40.0,29.41,SSE,148,2.7,2.7,54,0.00,,---,0.00,VWS V14.00,2013-02-06 11:47:00,
2013-02-06 05:48:00,56.5,40.0,29.41,SSE,148,2.7,2.7,54,0.00,,---,0.00,VWS V14.00,2013-02-06 11:48:00,
2013-02-06 05:49:00,56.5,40.0,29.41,SE,141,2.2,2.7,54,0.00,,---,0.00,VWS V14.00,2013-02-06 11:49:00,
2013-02-06 05:51:00,56.5,40.0,29.41,SSE,151,2.7,2.7,54,0.00,,---,0.00,VWS V14.00,2013-02-06 11:51:00,
2013-02-06 05:52:00,56.5,40.0,29.41,SSE,151,2.7,2.7,54,0.00,,---,0.00,VWS V14.00,2013-02-06 11:52:00,
2013-02-06 05:53:00,56.5,40.0,29.41,SSE,151,2.7,2.7,54,0.00,,---,0.00,VWS V14.00,2013-02-06 11:53:00,
2013-02-06 05:54:00,56.5,40.0,29.41,SSE,151,2.7,2.7,54,0.00,,---,0.00,VWS V14.00,2013-02-06 11:54:00,
2013-02-06 05:56:00,56.5,40.0,29.41,SE,145,0.0,0.0,54,0.00,,---,0.00,VWS V14.00,2013-02-06 11:56:00,
2013-02-06 05:57:00,56.5,40.0,29.41,SE,145,0.0,0.0,54,0.00,,---,0.00,VWS V14.00,2013-02-06 11:57:00,
2013-02-06 05:58:00,56.5,40.0,29.41,SE,144,2.7,2.7,54,0.00,,---,0.00,VWS V14.00,2013-02-06 11:58:00,
2013-02-06 05:59:00,56.5,40.0,29.41,SE,144,2.7,2.7,54,0.00,,---,0.00,VWS V14.00,2013-02-06 11:59:00,
2013-02-06 06:01:00,56.5,40.0,29.41,SE,144,2.2,2.2,54,0.00,,---,0.00,VWS V14.00,2013-02-06 12:01:00,
2013-02-06 06:02:00,56.5,40.0,29.41,SE,144,2.7,2.7,54,0.00,,---,0.00,VWS V14.00,2013-02-06 12:02:00,
2013-02-06 06:03:00,56.5,40.0,29.41,SE,144,2.7,2.7,54,0.00,,---,0.00,VWS V14.00,2013-02-06 12:03:00,
2013-02-06 06:04:00,56.5,40.0,29.41,SE,144,2.7,2.7,54,0.00,,---,0.00,VWS V14.00,2013-02-06 12:04:00,
2013-02-06 06:06:00,56.5,40.0,29.41,SE,141,2.2,2.2,54,0.00,,---,0.00,VWS V14.00,2013-02-06 12:06:00,
2013-02-06 06:07:00,56.5,40.0,29.41,SSE,154,3.1,3.1,54,0.00,,---,0.00,VWS V14.00,2013-02-06 12:07:00,
2013-02-06 06:08:00,56.5,40.0,29.41,SSE,154,3.1,3.1,54,0.00,,---,0.00,VWS V14.00,2013-02-06 12:08:00,
2013-02-06 06:09:00,56.5,40.0,29.41,SE,144,2.7,2.7,54,0.00,,---,0.00,VWS V14.00,2013-02-06 12:09:00,
2013-02-06 06:11:00,56.5,40.0,29.41,SE,143,0.0,0.0,54,0.00,,---,0.00,VWS V14.00,2013-02-06 12:11:00,
2013-02-06 06:12:00,56.5,40.0,29.41,SE,143,0.0,0.0,54,0.00,,---,0.00,VWS V14.00,2013-02-06 12:12:00,
2013-02-06 06:13:00,56.5,40.0,29.41,SE,143,0.0,0.0,54,0.00,,---,0.00,VWS V14.00,2013-02-06 12:13:00,
2013-02-06 06:14:00,56.5,40.0,29.41,SE,143,0.0,0.0,54,0.00,,---,0.00,VWS V14.00,2013-02-06 12:14:00,
2013-02-06 06:16:00,56.5,40.0,29.41,SE,143,2.2,2.7,54,0.00,,---,0.00,VWS V14.00,2013-02-06 12:16:00,
2013-02-06 06:17:00,56.5,40.0,29.41,SE,143,0.0,2.2,54,0.00,,---,0.00,VWS V14.00,2013-02-06 12:17:00,
2013-02-06 06:18:00,56.5,40.0,29.41,SE,143,0.0,0.0,54,0.00,,---,0.00,VWS V14.00,2013-02-06 12:18:00,
2013-02-06 06:19:00,56.5,40.0,29.41,SE,143,0.0,0.0,54,0.00,,---,0.00,VWS V14.00,2013-02-06 12:19:00,
2013-02-06 06:22:00,56.7,40.2,29.41,SE,143,0.0,0.0,54,0.00,,---,0.00,VWS V14.00,2013-02-06 12:22:00,
2013-02-06 06:23:00,56.7,40.2,29.41,SE,143,0.0,0.0,54,0.00,,---,0.00,VWS V14.00,2013-02-06 12:23:00,
2013-02-06 06:24:00,56.7,40.2,29.41,SE,143,0.0,0.0,54,0.00,,---,0.00,VWS V14.00,2013-02-06 12:24:00,
2013-02-06 06:27:00,56.7,40.2,29.41,SE,143,0.0,0.0,54,0.00,,---,0.00,VWS V14.00,2013-02-06 12:27:00,
2013-02-06 06:28:00,56.7,40.2,29.41,SE,143,0.0,0.0,54,0.00,,---,0.00,VWS V14.00,2013-02-06 12:28:00,
2013-02-06 06:29:00,56.7,40.2,29.41,SE,143,0.0,0.0,54,0.00,,---,0.00,VWS V14.00,2013-02-06 12:29:00,
2013-02-06 06:32:00,56.7,40.2,29.41,SE,143,0.0,0.0,54,0.00,,---,0.00,VWS V14.00,2013-02-06 12:32:00,
2013-02-06 06:33:00,56.7,40.2,29.41,SE,143,0.0,0.0,54,0.00,,---,0.00,VWS V14.00,2013-02-06 12:33:00,
2013-02-06 06:34:00,56.7,40.2,29.41,SE,143,2.2,2.2,54,0.00,,---,0.00,VWS V14.00,2013-02-06 12:34:00,
2013-02-06 06:37:00,56.7,40.2,29.41,SE,143,2.2,2.2,54,0.00,,---,0.00,VWS V14.00,2013-02-06 12:37:00,
2013-02-06 06:38:00,56.7,40.2,29.41,SE,143,2.2,2.2,54,0.00,,---,0.00,VWS V14.00,2013-02-06 12:38:00,
2013-02-06 06:40:00,56.7,40.2,29.41,SE,145,2.7,2.7,54,0.00,,---,0.00,VWS V14.00,2013-02-06 12:40:00,
2013-02-06 06:42:00,56.8,40.9,29.41,SE,145,0.0,3.1,55,0.00,,---,0.00,VWS V14.00,2013-02-06 12:42:00,
2013-02-06 06:43:00,56.8,40.9,29.41,SE,145,0.0,3.1,55,0.00,,---,0.00,VWS V14.00,2013-02-06 12:43:00,
2013-02-06 06:45:00,56.8,40.9,29.41,SE,145,0.0,2.2,55,0.00,,---,0.00,VWS V14.00,2013-02-06 12:45:00,
2013-02-06 06:47:00,56.8,40.9,29.41,SE,145,0.0,0.0,55,0.00,,---,0.00,VWS V14.00,2013-02-06 12:47:00,
2013-02-06 06:48:00,56.8,40.9,29.41,SE,145,0.0,0.0,55,0.00,,---,0.00,VWS V14.00,2013-02-06 12:48:00,
2013-02-06 06:49:00,56.8,40.9,29.41,SE,145,2.7,2.7,55,0.00,,---,0.00,VWS V14.00,2013-02-06 12:49:00,
2013-02-06 06:50:00,56.8,40.9,29.41,SE,145,0.0,2.7,55,0.00,,---,0.00,VWS V14.00,2013-02-06 12:50:00,
2013-02-06 06:52:00,56.8,40.9,29.41,SE,141,2.2,2.7,55,0.00,,---,0.00,VWS V14.00,2013-02-06 12:52:00,
2013-02-06 06:53:00,56.8,40.9,29.41,SE,141,3.1,3.1,55,0.00,,---,0.00,VWS V14.00,2013-02-06 12:53:00,
2013-02-06 06:54:00,56.8,40.9,29.41,SE,141,3.1,3.1,55,0.00,,---,0.00,VWS V14.00,2013-02-06 12:54:00,
2013-02-06 06:55:00,56.8,40.9,29.41,SE,142,0.0,0.0,55,0.00,,---,0.00,VWS V14.00,2013-02-06 12:55:00,
2013-02-06 06:57:00,56.8,40.9,29.41,SE,142,0.0,0.0,55,0.00,,---,0.00,VWS V14.00,2013-02-06 12:57:00,
2013-02-06 06:58:00,56.8,40.9,29.41,SE,141,0.0,0.0,55,0.00,,---,0.00,VWS V14.00,2013-02-06 12:58:00,
2013-02-06 06:59:00,56.8,40.9,29.41,SE,141,0.0,0.0,55,0.00,,---,0.00,VWS V14.00,2013-02-06 12:59:00,
2013-02-06 07:00:00,56.8,40.9,29.41,SE,142,0.0,0.0,55,0.00,,---,0.00,VWS V14.00,2013-02-06 13:00:00,
2013-02-06 07:02:00,56.8,40.9,29.41,SE,141,2.2,3.1,55,0.00,,---,0.00,VWS V14.00,2013-02-06 13:02:00,
2013-02-06 07:03:00,56.8,40.9,29.41,SE,142,2.2,2.2,55,0.00,,---,0.00,VWS V14.00,2013-02-06 13:03:00,
2013-02-06 07:04:00,56.8,40.9,29.41,SE,141,0.0,2.2,55,0.00,,---,0.00,VWS V14.00,2013-02-06 13:04:00,
2013-02-06 07:05:00,56.8,40.9,29.41,SE,141,0.0,0.0,55,0.00,,---,0.00,VWS V14.00,2013-02-06 13:05:00,
2013-02-06 07:07:00,57.0,41.0,29.41,SE,142,3.1,3.1,55,0.00,,---,0.00,VWS V14.00,2013-02-06 13:07:00,
2013-02-06 07:08:00,57.0,41.0,29.41,SE,142,3.1,3.1,55,0.00,,---,0.00,VWS V14.00,2013-02-06 13:08:00,
2013-02-06 07:09:00,57.0,41.0,29.41,SE,142,3.1,3.1,55,0.00,,---,0.00,VWS V14.00,2013-02-06 13:09:00,
2013-02-06 07:10:00,57.0,41.0,29.41,SE,141,2.7,2.7,55,0.00,,---,0.00,VWS V14.00,2013-02-06 13:10:00,
2013-02-06 07:13:00,57.0,41.0,29.41,SE,142,3.1,3.1,55,0.00,,---,0.00,VWS V14.00,2013-02-06 13:13:00,
2013-02-06 07:14:00,57.0,41.0,29.41,SE,142,2.7,2.7,55,0.00,,---,0.00,VWS V14.00,2013-02-06 13:14:00,
2013-02-06 07:15:00,57.2,41.2,29.41,SE,142,2.2,2.7,55,0.00,,---,0.00,VWS V14.00,2013-02-06 13:15:00,
2013-02-06 07:17:00,57.2,41.2,29.41,SE,142,3.6,3.6,55,0.00,,---,0.00,VWS V14.00,2013-02-06 13:17:00,
2013-02-06 07:19:00,57.2,41.2,29.41,SE,142,3.6,3.6,55,0.00,,---,0.00,VWS V14.00,2013-02-06 13:19:00,
2013-02-06 07:21:00,57.2,41.2,29.41,SSE,153,2.7,3.6,55,0.00,,---,0.00,VWS V14.00,2013-02-06 13:21:00,
2013-02-06 07:23:00,57.2,41.7,29.41,SSE,153,2.7,2.7,56,0.00,,---,0.00,VWS V14.00,2013-02-06 13:23:00,
2013-02-06 07:24:00,57.4,41.8,29.41,South,170,3.6,3.6,56,0.00,,---,0.00,VWS V14.00,2013-02-06 13:24:00,
2013-02-06 07:26:00,57.4,41.8,29.41,South,170,3.6,3.6,56,0.00,,---,0.00,VWS V14.00,2013-02-06 13:26:00,
2013-02-06 07:28:00,57.4,41.8,29.41,SSE,151,3.1,3.1,56,0.00,,---,0.00,VWS V14.00,2013-02-06 13:28:00,
2013-02-06 07:29:00,57.4,41.8,29.41,SSE,151,3.1,3.1,56,0.00,,---,0.00,VWS V14.00,2013-02-06 13:29:00,
2013-02-06 07:30:00,57.4,41.8,29.41,SSE,160,0.0,3.1,56,0.00,,---,0.00,VWS V14.00,2013-02-06 13:30:00,
2013-02-06 07:33:00,57.4,41.8,29.41,SSE,162,0.0,0.0,56,0.00,,---,0.00,VWS V14.00,2013-02-06 13:33:00,
2013-02-06 07:34:00,57.6,42.0,29.41,SSE,162,0.0,0.0,56,0.00,,---,0.00,VWS V14.00,2013-02-06 13:34:00,
2013-02-06 07:35:00,57.6,42.0,29.41,SSE,158,2.2,2.2,56,0.00,,---,0.00,VWS V14.00,2013-02-06 13:35:00,
2013-02-06 07:36:00,57.6,42.0,29.41,SSE,151,2.7,2.7,56,0.00,,---,0.00,VWS V14.00,2013-02-06 13:36:00,
2013-02-06 07:38:00,57.6,42.0,29.41,SE,142,3.1,3.1,56,0.00,,---,0.00,VWS V14.00,2013-02-06 13:38:00,
2013-02-06 07:39:00,57.6,42.0,29.41,SSE,149,3.6,3.6,56,0.00,,---,0.00,VWS V14.00,2013-02-06 13:39:00,
2013-02-06 07:40:00,57.7,42.2,29.41,SSE,165,4.0,4.5,56,0.00,,---,0.00,VWS V14.00,2013-02-06 13:40:00,
2013-02-06 07:41:00,57.7,42.2,29.41,SSE,165,4.0,4.5,56,0.00,,---,0.00,VWS V14.00,2013-02-06 13:41:00,
2013-02-06 07:43:00,57.7,42.2,29.41,SSE,163,2.2,2.2,56,0.00,,---,0.00,VWS V14.00,2013-02-06 13:43:00,
2013-02-06 07:44:00,57.9,42.3,29.41,SSE,154,2.7,4.0,56,0.00,,---,0.00,VWS V14.00,2013-02-06 13:44:00,
2013-02-06 07:45:00,57.9,42.3,29.41,SSE,154,2.7,2.7,56,0.00,,---,0.00,VWS V14.00,2013-02-06 13:45:00,
2013-02-06 07:46:00,57.9,42.3,29.41,SSE,154,2.7,2.7,56,0.00,,---,0.00,VWS V14.00,2013-02-06 13:46:00,
2013-02-06 07:48:00,57.9,42.3,29.41,SSE,166,2.7,2.7,56,0.00,,---,0.00,VWS V14.00,2013-02-06 13:48:00,
2013-02-06 07:49:00,57.9,42.8,29.41,SSE,166,2.7,2.7,57,0.00,,---,0.00,VWS V14.00,2013-02-06 13:49:00,
2013-02-06 07:50:00,57.9,42.8,29.41,SE,136,4.0,4.0,57,0.00,,---,0.00,VWS V14.00,2013-02-06 13:50:00,
2013-02-06 07:51:00,57.9,42.8,29.41,SE,127,0.0,4.0,57,0.00,,---,0.00,VWS V14.00,2013-02-06 13:51:00,
2013-02-06 07:53:00,58.1,43.0,29.41,SSW,193,3.1,3.1,57,0.00,,---,0.00,VWS V14.00,2013-02-06 13:53:00,
2013-02-06 07:54:00,58.1,43.0,29.41,South,191,0.0,0.0,57,0.00,,---,0.00,VWS V14.00,2013-02-06 13:54:00,
2013-02-06 07:55:00,58.1,43.0,29.41,ESE,121,2.7,2.7,57,0.00,,---,0.00,VWS V14.00,2013-02-06 13:55:00,
2013-02-06 07:56:00,58.1,43.0,29.41,ESE,121,2.7,2.7,57,0.00,,---,0.00,VWS V14.00,2013-02-06 13:56:00,
2013-02-06 07:58:00,58.1,43.0,29.41,SSE,155,0.0,2.2,57,0.00,,---,0.00,VWS V14.00,2013-02-06 13:58:00,
2013-02-06 07:59:00,58.1,43.0,29.41,SSE,155,2.7,2.7,57,0.00,,---,0.00,VWS V14.00,2013-02-06 13:59:00,
2013-02-06 08:00:00,58.1,43.0,29.41,SSE,151,0.0,2.7,57,0.00,,---,0.00,VWS V14.00,2013-02-06 14:00:00,
2013-02-06 08:01:00,58.3,43.1,29.41,SSE,151,3.1,3.1,57,0.00,,---,0.00,VWS V14.00,2013-02-06 14:01:00,
2013-02-06 08:03:00,58.3,43.1,29.41,SSE,150,4.0,4.0,57,0.00,,---,0.00,VWS V14.00,2013-02-06 14:03:00,
2013-02-06 08:05:00,58.3,43.1,29.41,SE,135,3.1,4.0,57,0.00,,---,0.00,VWS V14.00,2013-02-06 14:05:00,
2013-02-06 08:06:00,58.3,43.1,29.41,SE,135,3.1,3.1,57,0.00,,---,0.00,VWS V14.00,2013-02-06 14:06:00,
2013-02-06 08:08:00,58.5,43.3,29.41,SSE,165,2.2,2.2,57,0.00,,---,0.00,VWS V14.00,2013-02-06 14:08:00,
2013-02-06 08:10:00,58.5,43.3,29.41,SSE,154,3.1,3.6,57,0.00,,---,0.00,VWS V14.00,2013-02-06 14:10:00,
2013-02-06 08:11:00,58.5,43.3,29.41,SSE,154,3.1,3.1,57,0.00,,---,0.00,VWS V14.00,2013-02-06 14:11:00,
2013-02-06 08:13:00,58.5,43.3,29.41,SSE,154,3.1,3.1,57,0.00,,---,0.00,VWS V14.00,2013-02-06 14:13:00,
2013-02-06 08:15:00,58.5,43.3,29.41,SSE,155,0.0,0.0,57,0.00,,---,0.00,VWS V14.00,2013-02-06 14:15:00,
2013-02-06 08:16:00,58.5,43.3,29.41,SSE,157,0.0,0.0,57,0.00,,---,0.00,VWS V14.00,2013-02-06 14:16:00,
2013-02-06 08:19:00,58.5,43.3,29.41,South,185,2.2,2.2,57,0.00,,---,0.00,VWS V14.00,2013-02-06 14:19:00,
2013-02-06 08:20:00,58.5,43.3,29.41,South,185,2.2,2.2,57,0.00,,---,0.00,VWS V14.00,2013-02-06 14:20:00,
2013-02-06 08:21:00,58.6,43.5,29.41,South,180,0.0,0.0,57,0.00,,---,0.00,VWS V14.00,2013-02-06 14:21:00,
2013-02-06 08:24:00,58.6,43.5,29.41,SSE,161,0.0,0.0,57,0.00,,---,0.00,VWS V14.00,2013-02-06 14:24:00,
2013-02-06 08:25:00,58.6,43.5,29.41,SSE,161,0.0,0.0,57,0.00,,---,0.00,VWS V14.00,2013-02-06 14:25:00,
2013-02-06 08:26:00,58.6,43.5,29.41,South,170,4.9,4.9,57,0.00,,---,0.00,VWS V14.00,2013-02-06 14:26:00,
2013-02-06 08:29:00,58.6,43.5,29.41,SSW,213,3.1,3.1,57,0.00,,---,0.00,VWS V14.00,2013-02-06 14:29:00,
2013-02-06 08:30:00,58.6,43.5,29.41,SSW,192,0.0,0.0,57,0.00,,---,0.00,VWS V14.00,2013-02-06 14:30:00,
2013-02-06 08:31:00,58.8,43.6,29.41,SSE,158,5.4,5.4,57,0.00,,---,0.00,VWS V14.00,2013-02-06 14:31:00,
2013-02-06 08:34:00,58.8,43.6,29.41,SSE,162,2.7,5.4,57,0.00,,---,0.00,VWS V14.00,2013-02-06 14:34:00,
2013-02-06 08:35:00,58.8,43.6,29.41,SSE,162,2.7,2.7,57,0.00,,---,0.00,VWS V14.00,2013-02-06 14:35:00,
2013-02-06 08:37:00,58.8,43.6,29.41,South,191,0.0,0.0,57,0.00,,---,0.00,VWS V14.00,2013-02-06 14:37:00,
2013-02-06 08:39:00,58.8,43.6,29.41,SSE,165,4.0,4.9,57,0.00,,---,0.00,VWS V14.00,2013-02-06 14:39:00,
2013-02-06 08:40:00,58.8,43.6,29.41,South,169,4.0,4.0,57,0.00,,---,0.00,VWS V14.00,2013-02-06 14:40:00,
2013-02-06 08:41:00,58.8,43.6,29.41,South,170,3.6,4.0,57,0.00,,---,0.00,VWS V14.00,2013-02-06 14:41:00,
2013-02-06 08:42:00,58.8,43.6,29.41,SSE,168,2.7,4.0,57,0.00,,---,0.00,VWS V14.00,2013-02-06 14:42:00,
2013-02-06 08:44:00,59.0,43.8,29.41,SSE,168,3.1,3.1,57,0.00,,---,0.00,VWS V14.00,2013-02-06 14:44:00,
2013-02-06 08:45:00,59.0,43.8,29.41,SSE,168,3.1,3.1,57,0.00,,---,0.00,VWS V14.00,2013-02-06 14:45:00,
2013-02-06 08:46:00,59.0,43.8,29.41,SSE,168,3.1,3.1,57,0.00,,---,0.00,VWS V14.00,2013-02-06 14:46:00,
2013-02-06 08:47:00,59.0,43.8,29.41,SSE,168,2.7,2.7,57,0.00,,---,0.00,VWS V14.00,2013-02-06 14:47:00,
2013-02-06 08:50:00,59.0,43.8,29.41,SSE,164,2.2,3.6,57,0.00,,---,0.00,VWS V14.00,2013-02-06 14:50:00,
2013-02-06 08:51:00,59.2,44.0,29.41,SSE,164,2.2,2.2,57,0.00,,---,0.00,VWS V14.00,2013-02-06 14:51:00,
2013-02-06 08:52:00,59.2,44.0,29.41,SSE,151,2.7,2.7,57,0.00,,---,0.00,VWS V14.00,2013-02-06 14:52:00,
2013-02-06 08:55:00,59.2,44.0,29.41,SSE,151,0.0,0.0,57,0.00,,---,0.00,VWS V14.00,2013-02-06 14:55:00,
2013-02-06 08:56:00,59.2,44.0,29.41,SSE,151,0.0,0.0,57,0.00,,---,0.00,VWS V14.00,2013-02-06 14:56:00,
2013-02-06 08:57:00,59.2,44.0,29.41,SSE,150,0.0,0.0,57,0.00,,---,0.00,VWS V14.00,2013-02-06 14:57:00,
2013-02-06 09:00:00,59.2,44.0,29.41,SSE,150,0.0,0.0,57,0.00,,---,0.00,VWS V14.00,2013-02-06 15:00:00,
2013-02-06 09:01:00,59.2,44.0,29.41,SSE,150,0.0,0.0,57,0.00,,---,0.00,VWS V14.00,2013-02-06 15:01:00,
2013-02-06 09:02:00,59.2,44.0,29.41,South,183,4.0,4.0,57,0.00,,---,0.00,VWS V14.00,2013-02-06 15:02:00,
2013-02-06 09:05:00,59.2,44.0,29.41,South,183,4.0,4.0,57,0.00,,---,0.00,VWS V14.00,2013-02-06 15:05:00,
2013-02-06 09:06:00,59.2,44.0,29.41,South,183,4.0,4.0,57,0.00,,---,0.00,VWS V14.00,2013-02-06 15:06:00,
2013-02-06 09:07:00,59.4,44.1,29.41,South,187,5.4,5.4,57,0.00,,---,0.00,VWS V14.00,2013-02-06 15:07:00,
2013-02-06 09:10:00,59.5,44.3,29.41,South,179,3.6,4.0,57,0.00,,---,0.00,VWS V14.00,2013-02-06 15:10:00,
2013-02-06 09:11:00,59.5,44.3,29.41,SSE,158,4.0,4.0,57,0.00,,---,0.00,VWS V14.00,2013-02-06 15:11:00,
2013-02-06 09:13:00,59.5,44.3,29.41,SW,214,3.1,3.1,57,0.00,,---,0.00,VWS V14.00,2013-02-06 15:13:00,
2013-02-06 09:15:00,59.5,44.3,29.41,SE,145,4.9,4.9,57,0.00,,---,0.00,VWS V14.00,2013-02-06 15:15:00,
2013-02-06 09:16:00,59.5,44.3,29.41,SE,145,4.9,4.9,57,0.00,,---,0.00,VWS V14.00,2013-02-06 15:16:00,
2013-02-06 09:18:00,59.5,44.3,29.41,South,170,4.0,4.0,57,0.00,,---,0.00,VWS V14.00,2013-02-06 15:18:00,
2013-02-06 09:21:00,59.7,44.5,29.41,South,170,0.0,0.0,57,0.00,,---,0.00,VWS V14.00,2013-02-06 15:21:00,
2013-02-06 09:23:00,59.7,44.5,29.41,South,178,0.0,0.0,57,0.00,,---,0.00,VWS V14.00,2013-02-06 15:23:00,
2013-02-06 09:26:00,59.9,44.7,29.41,South,178,2.7,2.7,57,0.00,,---,0.00,VWS V14.00,2013-02-06 15:26:00,
2013-02-06 09:27:00,59.9,44.7,29.41,SSE,157,2.2,4.0,57,0.00,,---,0.00,VWS V14.00,2013-02-06 15:27:00,
2013-02-06 09:28:00,59.9,44.7,29.41,SSE,157,0.0,0.0,57,0.00,,---,0.00,VWS V14.00,2013-02-06 15:28:00,
2013-02-06 09:31:00,60.1,44.8,29.41,SW,227,2.7,6.3,57,0.00,,---,0.00,VWS V14.00,2013-02-06 15:31:00,
2013-02-06 09:32:00,60.1,44.8,29.41,South,172,2.2,2.2,57,0.00,,---,0.00,VWS V14.00,2013-02-06 15:32:00,
2013-02-06 09:33:00,60.1,44.8,29.41,South,171,3.6,3.6,57,0.00,,---,0.00,VWS V14.00,2013-02-06 15:33:00,
2013-02-06 09:36:00,60.1,45.3,29.44,SSE,168,3.6,3.6,58,0.00,,---,0.00,VWS V14.00,2013-02-06 15:36:00,
2013-02-06 09:37:00,60.1,44.8,29.44,SSW,200,3.1,3.1,57,0.00,,---,0.00,VWS V14.00,2013-02-06 15:37:00,
2013-02-06 09:38:00,60.3,45.0,29.44,SSE,163,6.3,6.3,57,0.00,,---,0.00,VWS V14.00,2013-02-06 15:38:00,
2013-02-06 09:41:00,60.3,45.0,29.44,SSE,149,5.4,5.4,57,0.00,,---,0.00,VWS V14.00,2013-02-06 15:41:00,
2013-02-06 09:42:00,60.3,45.0,29.44,South,169,4.0,5.4,57,99.99,,---,99.99,VWS V14.00,2013-02-06 15:42:00,
2013-02-06 09:43:00,60.3,45.0,29.44,SW,220,2.2,2.2,57,99.99,,---,99.99,VWS V14.00,2013-02-06 15:43:00,
2013-02-06 09:46:00,60.4,45.6,29.44,SSW,201,2.7,2.7,58,99.99,,---,99.99,VWS V14.00,2013-02-06 15:46:00,
2013-02-06 09:47:00,60.4,45.6,29.44,SSW,192,6.3,6.3,58,99.99,,---,99.99,VWS V14.00,2013-02-06 15:47:00,
2013-02-06 09:48:00,60.4,45.6,29.44,SSW,192,6.3,6.3,58,99.99,,---,99.99,VWS V14.00,2013-02-06 15:48:00,
2013-02-06 09:51:00,60.4,45.6,29.44,SSW,195,8.1,8.1,58,99.99,,---,99.99,VWS V14.00,2013-02-06 15:51:00,
2013-02-06 09:52:00,60.4,45.6,29.44,South,169,4.0,4.0,58,99.99,,---,99.99,VWS V14.00,2013-02-06 15:52:00,
2013-02-06 09:53:00,60.6,45.3,29.44,WSW,242,6.3,6.3,57,99.99,,---,99.99,VWS V14.00,2013-02-06 15:53:00,
2013-02-06 09:56:00,60.6,45.3,29.44,SSE,149,6.3,6.3,57,99.99,,---,99.99,VWS V14.00,2013-02-06 15:56:00,
2013-02-06 09:57:00,60.6,45.3,29.44,WSW,248,3.6,3.6,57,99.99,,---,99.99,VWS V14.00,2013-02-06 15:57:00,
2013-02-06 09:58:00,60.6,45.3,29.44,WSW,247,5.4,5.8,57,99.99,,---,99.99,VWS V14.00,2013-02-06 15:58:00,
2013-02-06 10:01:00,60.8,45.5,29.44,SW,229,2.7,2.7,57,99.99,,---,99.99,VWS V14.00,2013-02-06 16:01:00,
2013-02-06 10:02:00,60.8,45.5,29.44,SW,229,2.7,2.7,57,99.99,,---,99.99,VWS V14.00,2013-02-06 16:02:00,
2013-02-06 10:03:00,61.0,45.7,29.44,SW,229,2.7,2.7,57,99.99,,---,99.99,VWS V14.00,2013-02-06 16:03:00,
2013-02-06 10:06:00,61.0,45.7,29.44,SW,221,8.1,8.3,57,99.99,,---,99.99,VWS V14.00,2013-02-06 16:06:00,
2013-02-06 10:07:00,61.0,45.7,29.44,SW,221,8.1,8.1,57,99.99,,---,99.99,VWS V14.00,2013-02-06 16:07:00,
2013-02-06 10:08:00,61.0,45.7,29.44,SSW,211,2.7,5.4,57,99.99,,---,99.99,VWS V14.00,2013-02-06 16:08:00,
2013-02-06 10:11:00,61.2,45.8,29.44,SW,235,3.1,3.1,57,99.99,,---,99.99,VWS V14.00,2013-02-06 16:11:00,
2013-02-06 10:12:00,61.2,45.8,29.44,SW,235,3.1,3.1,57,99.99,,---,99.99,VWS V14.00,2013-02-06 16:12:00,
2013-02-06 10:13:00,61.2,45.8,29.44,SW,223,2.7,3.1,57,99.99,,---,99.99,VWS V14.00,2013-02-06 16:13:00,
2013-02-06 10:16:00,61.3,46.0,29.44,SW,224,4.0,4.0,57,99.99,,---,99.99,VWS V14.00,2013-02-06 16:16:00,
2013-02-06 10:17:00,61.3,46.0,29.44,SW,224,4.0,4.0,57,99.99,,---,99.99,VWS V14.00,2013-02-06 16:17:00,
2013-02-06 10:19:00,61.3,46.0,29.44,SW,229,0.0,4.0,57,99.99,,---,99.99,VWS V14.00,2013-02-06 16:19:00,
2013-02-06 10:21:00,61.3,46.0,29.44,SSW,202,2.2,2.2,57,99.99,,---,99.99,VWS V14.00,2013-02-06 16:21:00,
2013-02-06 10:22:00,61.3,46.0,29.44,SW,228,2.2,2.2,57,99.99,,---,99.99,VWS V14.00,2013-02-06 16:22:00,
2013-02-06 10:23:00,61.3,46.0,29.44,SW,228,2.2,2.2,57,99.99,,---,99.99,VWS V14.00,2013-02-06 16:23:00,
2013-02-06 10:24:00,61.5,46.2,29.44,South,170,3.6,3.6,57,99.99,,---,99.99,VWS V14.00,2013-02-06 16:24:00,
2013-02-06 10:26:00,61.5,46.2,29.44,South,180,4.5,4.5,57,99.99,,---,99.99,VWS V14.00,2013-02-06 16:26:00,
2013-02-06 10:27:00,61.7,46.3,29.44,South,180,4.5,4.5,57,99.99,,---,99.99,VWS V14.00,2013-02-06 16:27:00,
2013-02-06 10:28:00,61.7,46.3,29.44,South,180,4.5,4.5,57,99.99,,---,99.99,VWS V14.00,2013-02-06 16:28:00,
2013-02-06 10:29:00,61.7,46.3,29.44,SW,225,5.4,5.4,57,0.00,,---,0.00,VWS V14.00,2013-02-06 16:29:00,
2013-02-06 10:31:00,61.7,46.3,29.44,SSW,197,3.6,3.6,57,0.00,,---,0.00,VWS V14.00,2013-02-06 16:31:00,
2013-02-06 10:32:00,61.7,46.3,29.44,SSE,161,3.6,3.6,57,0.00,,---,0.00,VWS V14.00,2013-02-06 16:32:00,
2013-02-06 10:33:00,61.9,46.5,29.44,SSE,161,3.6,3.6,57,0.00,,---,0.00,VWS V14.00,2013-02-06 16:33:00,
2013-02-06 10:34:00,61.9,46.5,29.44,SE,143,4.5,4.5,57,0.00,,---,0.00,VWS V14.00,2013-02-06 16:34:00,
2013-02-06 10:36:00,61.9,46.0,29.44,SW,225,5.4,5.4,56,0.00,,---,0.00,VWS V14.00,2013-02-06 16:36:00,
2013-02-06 10:37:00,61.9,46.0,29.44,SSW,207,4.0,5.4,56,0.00,,---,0.00,VWS V14.00,2013-02-06 16:37:00,
2013-02-06 10:38:00,61.9,46.0,29.44,SSW,207,4.0,4.0,56,0.00,,---,0.00,VWS V14.00,2013-02-06 16:38:00,
2013-02-06 10:39:00,61.9,46.0,29.44,WSW,241,4.0,4.0,56,0.00,,---,0.00,VWS V14.00,2013-02-06 16:39:00,
2013-02-06 10:41:00,62.1,45.7,29.44,SSE,150,2.2,2.2,55,0.00,,---,0.00,VWS V14.00,2013-02-06 16:41:00,
2013-02-06 10:42:00,62.1,45.7,29.44,SW,222,3.6,3.6,55,0.00,,---,0.00,VWS V14.00,2013-02-06 16:42:00,
2013-02-06 10:43:00,62.1,45.7,29.44,South,187,5.4,5.4,55,0.00,,---,0.00,VWS V14.00,2013-02-06 16:43:00,
2013-02-06 10:44:00,62.1,45.7,29.44,South,187,5.4,5.4,55,0.00,,---,0.00,VWS V14.00,2013-02-06 16:44:00,
2013-02-06 10:46:00,62.2,45.4,29.44,SW,220,5.4,5.4,54,0.00,,---,0.00,VWS V14.00,2013-02-06 16:46:00,
2013-02-06 10:47:00,62.2,44.9,29.44,SW,220,5.4,5.4,53,0.00,,---,0.00,VWS V14.00,2013-02-06 16:47:00,
2013-02-06 10:48:00,62.2,44.9,29.44,WSW,240,3.1,5.4,53,0.00,,---,0.00,VWS V14.00,2013-02-06 16:48:00,
2013-02-06 10:49:00,62.2,44.9,29.44,WSW,239,0.0,0.0,53,0.00,,---,0.00,VWS V14.00,2013-02-06 16:49:00,
2013-02-06 10:51:00,62.2,41.8,29.44,SW,230,2.2,3.1,47,0.00,,---,0.00,VWS V14.00,2013-02-06 16:51:00,
2013-02-06 10:52:00,62.2,41.8,29.44,South,184,3.6,3.6,47,0.00,,---,0.00,VWS V14.00,2013-02-06 16:52:00,
2013-02-06 10:53:00,62.2,41.2,29.44,SSW,195,3.1,3.6,46,0.00,,---,0.00,VWS V14.00,2013-02-06 16:53:00,
2013-02-06 10:54:00,62.2,41.2,29.44,SSW,194,2.7,2.7,46,0.00,,---,0.00,VWS V14.00,2013-02-06 16:54:00,
2013-02-06 10:56:00,62.4,41.4,29.44,SW,226,2.2,3.1,46,0.00,,---,0.00,VWS V14.00,2013-02-06 16:56:00,
2013-02-06 10:58:00,62.2,40.7,29.44,South,189,2.7,2.7,45,0.00,,---,0.00,VWS V14.00,2013-02-06 16:58:00,
2013-02-06 10:59:00,62.4,40.8,29.44,WSW,246,3.1,3.6,45,0.00,,---,0.00,VWS V14.00,2013-02-06 16:59:00,
2013-02-06 11:01:00,62.4,40.2,29.44,West,269,3.6,3.6,44,0.00,,---,0.00,VWS V14.00,2013-02-06 17:01:00,
2013-02-06 11:03:00,62.4,39.7,29.44,SW,235,3.6,3.6,43,0.00,,---,0.00,VWS V14.00,2013-02-06 17:03:00,
2013-02-06 11:04:00,62.4,39.7,29.44,West,260,4.9,4.9,43,0.00,,---,0.00,VWS V14.00,2013-02-06 17:04:00,
2013-02-06 11:07:00,62.8,40.0,29.44,SSW,195,5.4,5.4,43,0.00,,---,0.00,VWS V14.00,2013-02-06 17:07:00,
2013-02-06 11:08:00,63.0,39.5,29.44,SSW,195,5.4,5.4,42,0.00,,---,0.00,VWS V14.00,2013-02-06 17:08:00,
2013-02-06 11:09:00,63.1,39.7,29.44,SSW,195,5.4,5.4,42,0.00,,---,0.00,VWS V14.00,2013-02-06 17:09:00,
2013-02-06 11:12:00,63.1,39.1,29.44,WSW,256,3.6,3.6,41,0.00,,---,0.00,VWS V14.00,2013-02-06 17:12:00,
2013-02-06 11:13:00,63.5,39.4,29.44,SW,233,4.0,4.0,41,0.00,,---,0.00,VWS V14.00,2013-02-06 17:13:00,
2013-02-06 11:14:00,63.5,38.8,29.44,WSW,238,3.1,3.1,40,0.00,,---,0.00,VWS V14.00,2013-02-06 17:14:00,
2013-02-06 11:17:00,63.5,38.8,29.44,SSW,204,2.2,2.2,40,0.00,,---,0.00,VWS V14.00,2013-02-06 17:17:00,
2013-02-06 11:18:00,63.5,38.8,29.44,WSW,250,4.0,4.0,40,0.00,,---,0.00,VWS V14.00,2013-02-06 17:18:00,
2013-02-06 11:19:00,63.5,38.8,29.44,WSW,250,4.0,4.0,40,0.00,,---,0.00,VWS V14.00,2013-02-06 17:19:00,
2013-02-06 11:22:00,63.7,37.6,29.41,West,263,2.7,2.7,38,0.00,,---,0.00,VWS V14.00,2013-02-06 17:22:00,
2013-02-06 11:23:00,63.9,37.1,29.41,SW,232,8.1,8.1,37,0.00,,---,0.00,VWS V14.00,2013-02-06 17:23:00,
2013-02-06 11:24:00,63.9,37.1,29.41,SW,232,8.1,8.1,37,0.00,,---,0.00,VWS V14.00,2013-02-06 17:24:00,
2013-02-06 11:27:00,64.2,36.7,29.41,SW,225,5.8,5.8,36,0.00,,---,0.00,VWS V14.00,2013-02-06 17:27:00,
2013-02-06 11:28:00,64.6,36.3,29.41,SW,225,5.8,5.8,35,0.00,,---,0.00,VWS V14.00,2013-02-06 17:28:00,
2013-02-06 11:29:00,64.6,36.3,29.41,WSW,244,2.2,5.8,35,0.00,,---,0.00,VWS V14.00,2013-02-06 17:29:00,
2013-02-06 11:32:00,64.9,35.9,29.41,WNW,284,4.0,5.4,34,0.00,,---,0.00,VWS V14.00,2013-02-06 17:32:00,
2013-02-06 11:33:00,64.9,35.9,29.41,West,265,3.1,3.1,34,0.00,,---,0.00,VWS V14.00,2013-02-06 17:33:00,
2013-02-06 11:34:00,65.3,36.2,29.41,West,265,3.1,3.1,34,0.00,,---,0.00,VWS V14.00,2013-02-06 17:34:00,
2013-02-06 11:37:00,65.3,36.2,29.41,West,271,5.4,5.8,34,0.00,,---,0.00,VWS V14.00,2013-02-06 17:37:00,
2013-02-06 11:38:00,65.3,36.2,29.41,WSW,242,3.6,4.0,34,0.00,,---,0.00,VWS V14.00,2013-02-06 17:38:00,
2013-02-06 11:39:00,65.3,36.2,29.41,WSW,248,4.0,4.0,34,0.00,,---,0.00,VWS V14.00,2013-02-06 17:39:00,
2013-02-06 11:42:00,66.0,36.9,29.41,SW,226,5.4,5.4,34,0.00,,---,0.00,VWS V14.00,2013-02-06 17:42:00,
2013-02-06 11:43:00,66.0,36.9,29.41,WSW,245,6.3,6.3,34,0.00,,---,0.00,VWS V14.00,2013-02-06 17:43:00,
2013-02-06 11:44:00,66.0,36.9,29.41,SW,226,4.9,6.3,34,0.00,,---,0.00,VWS V14.00,2013-02-06 17:44:00,
2013-02-06 11:47:00,66.4,36.4,29.41,SSW,200,3.6,3.6,33,0.00,,---,0.00,VWS V14.00,2013-02-06 17:47:00,
2013-02-06 11:48:00,66.7,36.8,29.41,West,273,2.2,2.7,33,0.00,,---,0.00,VWS V14.00,2013-02-06 17:48:00,
2013-02-06 11:49:00,66.7,36.8,29.41,West,272,2.7,2.7,33,0.00,,---,0.00,VWS V14.00,2013-02-06 17:49:00,
2013-02-06 11:50:00,66.7,36.8,29.41,WSW,246,3.1,3.1,33,0.00,,---,0.00,VWS V14.00,2013-02-06 17:50:00,
2013-02-06 11:52:00,67.1,37.1,29.41,South,190,3.1,3.1,33,0.00,,---,0.00,VWS V14.00,2013-02-06 17:52:00,
2013-02-06 11:54:00,67.3,37.2,29.41,South,183,3.6,3.6,33,0.00,,---,0.00,VWS V14.00,2013-02-06 17:54:00,
2013-02-06 11:55:00,67.5,37.4,29.41,South,175,6.3,6.3,33,0.00,,---,0.00,VWS V14.00,2013-02-06 17:55:00,
2013-02-06 11:57:00,67.6,37.5,29.41,SSW,207,3.1,3.1,33,0.00,,---,0.00,VWS V14.00,2013-02-06 17:57:00,
2013-02-06 11:59:00,67.8,37.7,29.41,SSE,155,3.1,4.0,33,0.00,,---,0.00,VWS V14.00,2013-02-06 17:59:00,
2013-02-06 12:00:00,68.0,37.8,29.41,SSE,155,3.1,3.1,33,0.00,,---,0.00,VWS V14.00,2013-02-06 18:00:00,
2013-02-06 12:02:00,68.0,37.8,29.41,WSW,237,3.6,3.6,33,0.00,,---,0.00,VWS V14.00,2013-02-06 18:02:00,
2013-02-06 12:04:00,68.0,37.8,29.41,WNW,295,5.4,5.4,33,0.00,,---,0.00,VWS V14.00,2013-02-06 18:04:00,
2013-02-06 12:05:00,68.0,37.8,29.41,WSW,251,2.7,5.4,33,0.00,,---,0.00,VWS V14.00,2013-02-06 18:05:00,
2013-02-06 12:07:00,68.0,37.8,29.41,WNW,283,5.4,5.4,33,0.00,,---,0.00,VWS V14.00,2013-02-06 18:07:00,
2013-02-06 12:09:00,68.2,38.0,29.41,WSW,255,3.1,5.4,33,0.00,,---,0.00,VWS V14.00,2013-02-06 18:09:00,
2013-02-06 12:10:00,68.2,38.0,29.41,WSW,255,3.1,5.4,33,0.00,,---,0.00,VWS V14.00,2013-02-06 18:10:00,
2013-02-06 12:12:00,68.2,38.0,29.41,SW,214,6.3,6.3,33,0.00,,---,0.00,VWS V14.00,2013-02-06 18:12:00,
2013-02-06 12:14:00,68.2,38.0,29.41,SW,225,5.4,5.4,33,0.00,,---,0.00,VWS V14.00,2013-02-06 18:14:00,
2013-02-06 12:15:00,68.2,38.0,29.41,SW,225,5.4,5.4,33,0.00,,---,0.00,VWS V14.00,2013-02-06 18:15:00,
2013-02-06 12:16:00,68.2,38.0,29.41,SW,218,2.7,5.4,33,0.00,,---,0.00,VWS V14.00,2013-02-06 18:16:00,
2013-02-06 12:17:00,68.2,38.0,29.41,SSW,197,3.1,3.6,33,0.00,,---,0.00,VWS V14.00,2013-02-06 18:17:00,
2013-02-06 12:19:00,68.5,38.3,29.41,SW,221,5.4,5.8,33,0.00,,---,0.00,VWS V14.00,2013-02-06 18:19:00,
2013-02-06 12:20:00,68.7,38.5,29.41,SW,221,5.4,5.4,33,0.00,,---,0.00,VWS V14.00,2013-02-06 18:20:00,
2013-02-06 12:21:00,68.7,38.5,29.41,SW,226,6.3,6.3,33,0.00,,---,0.00,VWS V14.00,2013-02-06 18:21:00,
2013-02-06 12:22:00,68.7,38.5,29.41,SW,220,5.4,5.4,33,0.00,,---,0.00,VWS V14.00,2013-02-06 18:22:00,
2013-02-06 12:24:00,68.9,38.6,29.41,West,264,3.6,3.6,33,0.00,,---,0.00,VWS V14.00,2013-02-06 18:24:00,
2013-02-06 12:25:00,69.1,38.8,29.41,West,264,3.6,3.6,33,0.00,,---,0.00,VWS V14.00,2013-02-06 18:25:00,
2013-02-06 12:26:00,69.1,38.8,29.41,SSW,208,5.8,5.8,33,0.00,,---,0.00,VWS V14.00,2013-02-06 18:26:00,
2013-02-06 12:28:00,69.3,39.0,29.41,West,267,3.6,4.9,33,0.00,,---,0.00,VWS V14.00,2013-02-06 18:28:00,
2013-02-06 12:29:00,69.4,39.1,29.41,SW,229,3.1,4.9,33,0.00,,---,0.00,VWS V14.00,2013-02-06 18:29:00,
2013-02-06 12:30:00,69.4,39.1,29.41,WSW,241,4.9,4.9,33,0.00,,---,0.00,VWS V14.00,2013-02-06 18:30:00,
2013-02-06 12:31:00,69.4,39.1,29.38,WSW,252,0.0,4.9,33,0.00,,---,0.00,VWS V14.00,2013-02-06 18:31:00,
2013-02-06 12:33:00,69.6,39.3,29.38,SW,229,0.0,0.0,33,0.00,,---,0.00,VWS V14.00,2013-02-06 18:33:00,
2013-02-06 12:34:00,69.8,38.6,29.38,SW,229,0.0,0.0,32,0.00,,---,0.00,VWS V14.00,2013-02-06 18:34:00,
2013-02-06 12:35:00,69.8,38.6,29.38,SW,229,0.0,0.0,32,0.00,,---,0.00,VWS V14.00,2013-02-06 18:35:00,
2013-02-06 12:36:00,69.8,38.6,29.38,SW,229,0.0,0.0,32,0.00,,---,0.00,VWS V14.00,2013-02-06 18:36:00,
2013-02-06 12:38:00,70.2,39.0,29.38,SW,218,6.3,6.3,32,0.00,,---,0.00,VWS V14.00,2013-02-06 18:38:00,
2013-02-06 12:40:00,70.3,39.1,29.38,WSW,238,5.4,5.4,32,0.00,,---,0.00,VWS V14.00,2013-02-06 18:40:00,
2013-02-06 12:41:00,70.3,39.1,29.38,WSW,238,5.4,5.4,32,0.00,,---,0.00,VWS V14.00,2013-02-06 18:41:00,
2013-02-06 12:43:00,70.3,39.1,29.38,SSW,211,3.6,4.9,32,0.00,,---,0.00,VWS V14.00,2013-02-06 18:43:00,
2013-02-06 12:45:00,70.5,39.3,29.38,SW,221,2.7,2.7,32,0.00,,---,0.00,VWS V14.00,2013-02-06 18:45:00,
2013-02-06 12:46:00,70.7,39.4,29.38,SW,221,2.7,2.7,32,0.00,,---,0.00,VWS V14.00,2013-02-06 18:46:00,
2013-02-06 12:48:00,70.9,39.6,29.38,South,174,6.3,6.3,32,0.00,,---,0.00,VWS V14.00,2013-02-06 18:48:00,
2013-02-06 12:50:00,70.9,39.6,29.38,SSE,164,4.9,6.3,32,0.00,,---,0.00,VWS V14.00,2013-02-06 18:50:00,
2013-02-06 12:51:00,71.1,39.7,29.38,SSE,164,4.9,4.9,32,0.00,,---,0.00,VWS V14.00,2013-02-06 18:51:00,
2013-02-06 12:53:00,71.1,39.7,29.38,WSW,257,4.9,4.9,32,0.00,,---,0.00,VWS V14.00,2013-02-06 18:53:00,
2013-02-06 12:55:00,71.2,39.9,29.38,SW,223,3.1,4.9,32,0.00,,---,0.00,VWS V14.00,2013-02-06 18:55:00,
2013-02-06 12:56:00,71.2,39.9,29.38,SW,220,3.6,3.6,32,0.00,,---,0.00,VWS V14.00,2013-02-06 18:56:00,
2013-02-06 12:58:00,71.4,40.0,29.38,SSE,154,8.1,8.1,32,0.00,,---,0.00,VWS V14.00,2013-02-06 18:58:00,
2013-02-06 13:00:00,71.4,40.0,29.38,WSW,238,5.4,8.1,32,0.00,,---,0.00,VWS V14.00,2013-02-06 19:00:00,
2013-02-06 13:01:00,71.4,40.0,29.38,WSW,238,5.4,5.4,32,0.00,,---,0.00,VWS V14.00,2013-02-06 19:01:00,
2013-02-06 13:03:00,71.6,40.2,29.38,West,268,5.4,5.4,32,0.00,,---,0.00,VWS V14.00,2013-02-06 19:03:00,
2013-02-06 13:05:00,71.6,40.2,29.38,WSW,244,5.8,5.8,32,0.00,,---,0.00,VWS V14.00,2013-02-06 19:05:00,
2013-02-06 13:06:00,71.6,40.2,29.38,SW,216,3.6,3.6,32,0.00,,---,0.00,VWS V14.00,2013-02-06 19:06:00,
2013-02-06 13:08:00,71.8,40.4,29.38,SW,219,0.0,0.0,32,0.00,,---,0.00,VWS V14.00,2013-02-06 19:08:00,
2013-02-06 13:10:00,71.8,40.4,29.38,WSW,254,3.1,3.1,32,0.00,,---,0.00,VWS V14.00,2013-02-06 19:10:00,
2013-02-06 13:11:00,72.0,40.5,29.35,WSW,254,3.1,3.1,32,0.00,,---,0.00,VWS V14.00,2013-02-06 19:11:00,
2013-02-06 13:13:00,72.1,40.7,29.35,SW,235,6.3,6.3,32,0.00,,---,0.00,VWS V14.00,2013-02-06 19:13:00,
2013-02-06 13:15:00,72.3,40.8,29.35,SW,217,4.0,4.0,32,0.00,,---,0.00,VWS V14.00,2013-02-06 19:15:00,
2013-02-06 13:16:00,72.3,40.8,29.35,SW,217,4.0,4.0,32,0.00,,---,0.00,VWS V14.00,2013-02-06 19:16:00,
2013-02-06 13:18:00,72.3,40.8,29.35,SW,222,4.9,4.9,32,0.00,,---,0.00,VWS V14.00,2013-02-06 19:18:00,
2013-02-06 13:20:00,72.3,40.8,29.35,SW,222,4.9,4.9,32,0.00,,---,0.00,VWS V14.00,2013-02-06 19:20:00,
2013-02-06 13:21:00,72.3,40.8,29.32,SW,222,4.9,4.9,32,0.00,,---,0.00,VWS V14.00,2013-02-06 19:21:00,
2013-02-06 13:23:00,72.3,40.8,29.32,SW,222,4.9,4.9,32,0.00,,---,0.00,VWS V14.00,2013-02-06 19:23:00,
2013-02-06 13:26:00,72.3,40.8,29.32,SW,223,4.0,5.8,32,0.00,,---,0.00,VWS V14.00,2013-02-06 19:26:00,
2013-02-06 13:27:00,72.3,40.8,29.32,SW,223,4.0,4.0,32,0.00,,---,0.00,VWS V14.00,2013-02-06 19:27:00,
2013-02-06 13:28:00,72.3,40.8,29.32,SW,223,4.0,4.0,32,0.00,,---,0.00,VWS V14.00,2013-02-06 19:28:00,
2013-02-06 13:31:00,73.8,41.3,29.32,SW,223,4.0,4.0,31,0.00,,---,0.00,VWS V14.00,2013-02-06 19:31:00,
2013-02-06 13:32:00,73.8,41.3,29.32,SW,223,4.0,4.0,31,0.00,,---,0.00,VWS V14.00,2013-02-06 19:32:00,
2013-02-06 13:34:00,73.8,41.3,29.32,West,262,3.6,3.6,31,0.00,,---,0.00,VWS V14.00,2013-02-06 19:34:00,
2013-02-06 13:36:00,74.1,41.6,29.32,West,262,3.6,3.6,31,0.00,,---,0.00,VWS V14.00,2013-02-06 19:36:00,
2013-02-06 13:37:00,74.1,41.6,29.32,West,262,3.6,3.6,31,0.00,,---,0.00,VWS V14.00,2013-02-06 19:37:00,
2013-02-06 13:39:00,74.1,41.6,29.32,West,262,3.6,3.6,31,0.00,,---,0.00,VWS V14.00,2013-02-06 19:39:00,
2013-02-06 13:41:00,74.3,41.7,29.32,West,260,7.6,7.6,31,0.00,,---,0.00,VWS V14.00,2013-02-06 19:41:00,
2013-02-06 13:42:00,74.3,41.7,29.32,SW,224,3.6,6.3,31,0.00,,---,0.00,VWS V14.00,2013-02-06 19:42:00,
2013-02-06 13:44:00,74.3,41.7,29.32,SW,224,3.6,3.6,31,0.00,,---,0.00,VWS V14.00,2013-02-06 19:44:00,
2013-02-06 13:46:00,74.7,42.0,29.35,SW,224,3.6,3.6,31,0.00,,---,0.00,VWS V14.00,2013-02-06 19:46:00,
2013-02-06 13:47:00,74.7,42.0,29.35,West,261,2.7,2.7,31,0.00,,---,0.00,VWS V14.00,2013-02-06 19:47:00,
2013-02-06 13:49:00,74.8,42.2,29.32,West,261,2.7,2.7,31,0.00,,---,0.00,VWS V14.00,2013-02-06 19:49:00,
2013-02-06 13:51:00,75.0,42.4,29.32,West,261,2.7,2.7,31,0.00,,---,0.00,VWS V14.00,2013-02-06 19:51:00,
2013-02-06 13:52:00,75.0,42.4,29.32,West,261,2.7,2.7,31,0.00,,---,0.00,VWS V14.00,2013-02-06 19:52:00,
2013-02-06 13:54:00,75.0,42.4,29.32,West,261,2.7,2.7,31,0.00,,---,0.00,VWS V14.00,2013-02-06 19:54:00,
2013-02-06 13:56:00,75.0,42.4,29.32,West,261,2.7,2.7,31,0.00,,---,0.00,VWS V14.00,2013-02-06 19:56:00,
2013-02-06 13:57:00,75.0,42.4,29.32,West,261,2.7,2.7,31,0.00,,---,0.00,VWS V14.00,2013-02-06 19:57:00,
2013-02-06 13:59:00,75.0,42.4,29.32,SSE,165,3.6,3.6,31,0.00,,---,0.00,VWS V14.00,2013-02-06 19:59:00,
2013-02-06 14:01:00,75.0,42.4,29.32,SSE,165,3.6,3.6,31,0.00,,---,0.00,VWS V14.00,2013-02-06 20:01:00,
2013-02-06 14:02:00,75.0,42.4,29.32,SSE,165,3.6,3.6,31,0.00,,---,0.00,VWS V14.00,2013-02-06 20:02:00,
2013-02-06 14:04:00,75.0,42.4,29.32,SSE,165,3.6,3.6,31,0.00,,---,0.00,VWS V14.00,2013-02-06 20:04:00,
2013-02-06 14:06:00,75.0,42.4,29.32,SSW,213,4.0,4.0,31,0.00,,---,0.00,VWS V14.00,2013-02-06 20:06:00,
2013-02-06 14:07:00,75.0,42.4,29.32,SSW,213,4.0,4.0,31,0.00,,---,0.00,VWS V14.00,2013-02-06 20:07:00,
2013-02-06 14:08:00,75.0,42.4,29.32,SSW,213,4.0,4.0,31,0.00,,---,0.00,VWS V14.00,2013-02-06 20:08:00,
2013-02-06 14:09:00,75.2,42.5,29.32,SSW,211,11.0,11.0,31,0.00,,---,0.00,VWS V14.00,2013-02-06 20:09:00,
2013-02-06 14:11:00,75.2,42.5,29.32,SSW,204,3.6,8.7,31,0.00,,---,0.00,VWS V14.00,2013-02-06 20:11:00,
2013-02-06 14:12:00,75.2,42.5,29.32,SSW,204,3.6,3.6,31,0.00,,---,0.00,VWS V14.00,2013-02-06 20:12:00,
2013-02-06 14:13:00,75.2,42.5,29.32,SSE,157,3.6,3.6,31,0.00,,---,0.00,VWS V14.00,2013-02-06 20:13:00,
2013-02-06 14:14:00,75.2,42.5,29.32,SSE,148,4.0,4.0,31,0.00,,---,0.00,VWS V14.00,2013-02-06 20:14:00,
2013-02-06 14:16:00,75.2,42.5,29.32,SSE,159,3.1,3.1,31,0.00,,---,0.00,VWS V14.00,2013-02-06 20:16:00,
2013-02-06 14:17:00,75.2,42.5,29.32,South,182,6.3,6.3,31,0.00,,---,0.00,VWS V14.00,2013-02-06 20:17:00,
2013-02-06 14:18:00,75.2,42.5,29.32,South,182,6.3,6.3,31,0.00,,---,0.00,VWS V14.00,2013-02-06 20:18:00,
2013-02-06 14:19:00,75.4,42.7,29.32,SW,227,3.6,3.6,31,0.00,,---,0.00,VWS V14.00,2013-02-06 20:19:00,
2013-02-06 14:21:00,75.4,42.7,29.32,SW,227,3.6,3.6,31,0.00,,---,0.00,VWS V14.00,2013-02-06 20:21:00,
2013-02-06 14:22:00,75.4,42.7,29.32,SW,227,3.6,3.6,31,0.00,,---,0.00,VWS V14.00,2013-02-06 20:22:00,
2013-02-06 14:23:00,75.4,42.7,29.32,SW,227,3.6,3.6,31,0.00,,---,0.00,VWS V14.00,2013-02-06 20:23:00,
2013-02-06 14:25:00,75.4,42.7,29.32,SW,227,3.6,3.6,31,0.00,,---,0.00,VWS V14.00,2013-02-06 20:25:00,
2013-02-06 14:26:00,75.4,42.7,29.32,SW,227,3.6,3.6,31,0.00,,---,0.00,VWS V14.00,2013-02-06 20:26:00,
2013-02-06 14:27:00,75.4,42.7,29.32,SW,227,3.6,3.6,31,0.00,,---,0.00,VWS V14.00,2013-02-06 20:27:00,
2013-02-06 14:28:00,75.7,43.0,29.32,SW,227,3.6,3.6,31,0.00,,---,0.00,VWS V14.00,2013-02-06 20:28:00,
2013-02-06 14:30:00,75.7,43.0,29.32,SSE,150,3.1,3.1,31,0.00,,---,0.00,VWS V14.00,2013-02-06 20:30:00,
2013-02-06 14:32:00,75.7,43.0,29.32,SSE,162,4.0,4.0,31,0.00,,---,0.00,VWS V14.00,2013-02-06 20:32:00,
2013-02-06 14:33:00,75.9,43.1,29.32,SSE,162,4.0,4.0,31,0.00,,---,0.00,VWS V14.00,2013-02-06 20:33:00,
2013-02-06 14:35:00,75.9,43.1,29.32,SSE,162,4.0,4.0,31,0.00,,---,0.00,VWS V14.00,2013-02-06 20:35:00,
2013-02-06 14:37:00,75.9,43.1,29.32,SSE,160,5.8,5.8,31,0.00,,---,0.00,VWS V14.00,2013-02-06 20:37:00,
2013-02-06 14:39:00,75.4,42.7,29.32,SSE,160,5.8,5.8,31,0.00,,---,0.00,VWS V14.00,2013-02-06 20:39:00,
2013-02-06 14:40:00,75.4,42.7,29.32,SSE,160,5.8,5.8,31,0.00,,---,0.00,VWS V14.00,2013-02-06 20:40:00,
2013-02-06 14:42:00,75.4,42.7,29.32,SSE,160,5.8,5.8,31,0.00,,---,0.00,VWS V14.00,2013-02-06 20:42:00,
2013-02-06 14:44:00,75.4,42.7,29.32,South,180,9.2,9.2,31,0.00,,---,0.00,VWS V14.00,2013-02-06 20:44:00,
2013-02-06 14:45:00,75.4,42.7,29.32,South,180,9.2,9.2,31,0.00,,---,0.00,VWS V14.00,2013-02-06 20:45:00,
2013-02-06 14:47:00,75.4,42.7,29.32,South,180,9.2,9.2,31,0.00,,---,0.00,VWS V14.00,2013-02-06 20:47:00,
2013-02-06 14:49:00,75.4,42.7,29.32,South,180,9.2,9.2,31,0.00,,---,0.00,VWS V14.00,2013-02-06 20:49:00,
2013-02-06 14:50:00,75.4,42.7,29.32,SSE,151,11.0,11.0,31,0.00,,---,0.00,VWS V14.00,2013-02-06 20:50:00,
2013-02-06 14:52:00,75.4,42.7,29.32,SSE,151,11.0,11.0,31,0.00,,---,0.00,VWS V14.00,2013-02-06 20:52:00,
2013-02-06 14:54:00,75.4,42.7,29.32,SSE,151,11.0,11.0,31,0.00,,---,0.00,VWS V14.00,2013-02-06 20:54:00,
2013-02-06 14:55:00,75.4,42.7,29.32,SSW,193,10.1,11.0,31,0.00,,---,0.00,VWS V14.00,2013-02-06 20:55:00,
2013-02-06 14:57:00,75.4,42.7,29.32,SSW,193,10.1,10.1,31,0.00,,---,0.00,VWS V14.00,2013-02-06 20:57:00,
2013-02-06 14:59:00,75.4,42.7,29.32,SSW,193,10.1,10.1,31,0.00,,---,0.00,VWS V14.00,2013-02-06 20:59:00,
2013-02-06 15:00:00,75.4,42.7,29.32,SSW,193,10.1,10.1,31,0.00,,---,0.00,VWS V14.00,2013-02-06 21:00:00,
2013-02-06 15:02:00,75.4,42.7,29.32,SSW,193,10.1,10.1,31,0.00,,---,0.00,VWS V14.00,2013-02-06 21:02:00,
2013-02-06 15:04:00,75.4,42.7,29.32,SSE,153,11.0,11.0,31,0.00,,---,0.00,VWS V14.00,2013-02-06 21:04:00,
2013-02-06 15:06:00,75.4,42.7,29.32,SSE,153,11.0,11.0,31,0.00,,---,0.00,VWS V14.00,2013-02-06 21:06:00,
2013-02-06 15:07:00,75.4,42.7,29.32,SSE,153,11.0,11.0,31,0.00,,---,0.00,VWS V14.00,2013-02-06 21:07:00,
2013-02-06 15:09:00,75.4,42.7,29.32,SSE,153,11.0,11.0,31,0.00,,---,0.00,VWS V14.00,2013-02-06 21:09:00,
2013-02-06 15:11:00,75.4,42.7,29.32,SSE,153,11.0,11.0,31,0.00,,---,0.00,VWS V14.00,2013-02-06 21:11:00,
2013-02-06 15:12:00,75.4,42.7,29.32,SE,143,5.4,5.4,31,0.00,,---,0.00,VWS V14.00,2013-02-06 21:12:00,
2013-02-06 15:13:00,72.1,40.7,29.32,SE,143,5.4,5.4,32,0.00,,---,0.00,VWS V14.00,2013-02-06 21:13:00,
2013-02-06 15:15:00,72.0,40.5,29.32,South,169,3.1,8.3,32,0.00,,---,0.00,VWS V14.00,2013-02-06 21:15:00,
2013-02-06 15:16:00,71.8,40.4,29.32,South,169,3.1,3.1,32,0.00,,---,0.00,VWS V14.00,2013-02-06 21:16:00,
2013-02-06 15:17:00,71.8,40.4,29.32,South,169,3.1,3.1,32,0.00,,---,0.00,VWS V14.00,2013-02-06 21:17:00,
2013-02-06 15:18:00,71.8,40.4,29.32,South,169,3.1,3.1,32,0.00,,---,0.00,VWS V14.00,2013-02-06 21:18:00,
2013-02-06 15:20:00,71.8,40.4,29.32,SSW,204,6.3,6.3,32,0.00,,---,0.00,VWS V14.00,2013-02-06 21:20:00,
2013-02-06 15:21:00,71.8,40.4,29.32,SSE,161,7.6,7.6,32,0.00,,---,0.00,VWS V14.00,2013-02-06 21:21:00,
2013-02-06 15:22:00,71.8,40.4,29.32,SSE,161,7.6,7.6,32,0.00,,---,0.00,VWS V14.00,2013-02-06 21:22:00,
2013-02-06 15:23:00,71.8,40.4,29.32,SSE,161,7.6,7.6,32,0.00,,---,0.00,VWS V14.00,2013-02-06 21:23:00,
2013-02-06 15:25:00,71.8,40.4,29.32,SSE,161,7.6,7.6,32,0.00,,---,0.00,VWS V14.00,2013-02-06 21:25:00,
2013-02-06 15:26:00,71.8,40.4,29.32,SSE,161,7.6,7.6,32,0.00,,---,0.00,VWS V14.00,2013-02-06 21:26:00,
2013-02-06 15:27:00,71.8,40.4,29.32,SE,141,5.8,7.6,32,0.00,,---,0.00,VWS V14.00,2013-02-06 21:27:00,
2013-02-06 15:28:00,71.8,40.4,29.32,SE,141,5.8,5.8,32,0.00,,---,0.00,VWS V14.00,2013-02-06 21:28:00,
2013-02-06 15:30:00,71.8,40.4,29.32,SE,141,5.8,5.8,32,0.00,,---,0.00,VWS V14.00,2013-02-06 21:30:00,
2013-02-06 15:31:00,71.8,40.4,29.32,SE,141,5.8,5.8,32,0.00,,---,0.00,VWS V14.00,2013-02-06 21:31:00,
2013-02-06 15:32:00,71.8,40.4,29.32,SSE,152,5.4,5.8,32,0.00,,---,0.00,VWS V14.00,2013-02-06 21:32:00,
2013-02-06 15:33:00,71.8,40.4,29.32,SSE,152,5.4,5.4,32,0.00,,---,0.00,VWS V14.00,2013-02-06 21:33:00,
2013-02-06 15:35:00,71.4,40.0,29.32,SE,125,7.6,7.6,32,0.00,,---,0.00,VWS V14.00,2013-02-06 21:35:00,
2013-02-06 15:36:00,71.4,40.0,29.32,East,94,5.8,7.6,32,0.00,,---,0.00,VWS V14.00,2013-02-06 21:36:00,
2013-02-06 15:37:00,71.4,40.0,29.32,SE,137,6.7,6.7,32,0.00,,---,0.00,VWS V14.00,2013-02-06 21:37:00,
2013-02-06 15:38:00,71.4,40.0,29.32,SSE,162,3.6,6.7,32,0.00,,---,0.00,VWS V14.00,2013-02-06 21:38:00,
2013-02-06 15:40:00,71.2,39.9,29.32,SSE,162,3.6,3.6,32,0.00,,---,0.00,VWS V14.00,2013-02-06 21:40:00,
2013-02-06 15:41:00,71.2,39.9,29.32,SSE,162,3.6,3.6,32,0.00,,---,0.00,VWS V14.00,2013-02-06 21:41:00,
2013-02-06 15:42:00,71.2,39.9,29.32,SE,131,5.8,5.8,32,0.00,,---,0.00,VWS V14.00,2013-02-06 21:42:00,
2013-02-06 15:43:00,71.2,39.9,29.32,South,182,3.1,4.0,32,0.00,,---,0.00,VWS V14.00,2013-02-06 21:43:00,
2013-02-06 15:45:00,71.2,39.9,29.32,SE,134,6.3,6.3,32,0.00,,---,0.00,VWS V14.00,2013-02-06 21:45:00,
2013-02-06 15:46:00,71.2,39.9,29.32,SE,134,6.3,6.3,32,0.00,,---,0.00,VWS V14.00,2013-02-06 21:46:00,
2013-02-06 15:48:00,71.2,39.9,29.32,SSE,165,7.6,7.6,32,0.00,,---,0.00,VWS V14.00,2013-02-06 21:48:00,
2013-02-06 15:51:00,71.2,39.9,29.32,SSE,165,7.6,7.6,32,0.00,,---,0.00,VWS V14.00,2013-02-06 21:51:00,
2013-02-06 15:53:00,71.2,39.9,29.32,ESE,119,8.7,8.7,32,0.00,,---,0.00,VWS V14.00,2013-02-06 21:53:00,
2013-02-06 15:56:00,71.2,39.9,29.32,ESE,114,9.2,9.2,32,0.00,,---,0.00,VWS V14.00,2013-02-06 21:56:00,
2013-02-06 15:58:00,71.2,39.9,29.32,ESE,114,9.2,9.2,32,0.00,,---,0.00,VWS V14.00,2013-02-06 21:58:00,
2013-02-06 16:01:00,71.2,39.9,29.32,SSE,161,5.8,9.2,32,0.00,,---,0.00,VWS V14.00,2013-02-06 22:01:00,
2013-02-06 16:03:00,71.2,39.9,29.32,SSE,161,5.8,5.8,32,0.00,,---,0.00,VWS V14.00,2013-02-06 22:03:00,
2013-02-06 16:06:00,69.3,39.0,29.32,SE,129,7.2,7.2,33,0.00,,---,0.00,VWS V14.00,2013-02-06 22:06:00,
2013-02-06 16:08:00,69.3,39.0,29.32,South,176,6.7,6.7,33,0.00,,---,0.00,VWS V14.00,2013-02-06 22:08:00,
2013-02-06 16:09:00,69.3,39.0,29.32,South,176,6.7,6.7,33,0.00,,---,0.00,VWS V14.00,2013-02-06 22:09:00,
2013-02-06 16:11:00,69.3,39.0,29.32,South,176,6.7,6.7,33,0.00,,---,0.00,VWS V14.00,2013-02-06 22:11:00,
2013-02-06 16:13:00,69.4,39.1,29.32,South,176,6.7,6.7,33,0.00,,---,0.00,VWS V14.00,2013-02-06 22:13:00,
2013-02-06 16:14:00,69.4,39.1,29.32,South,176,6.7,6.7,33,0.00,,---,0.00,VWS V14.00,2013-02-06 22:14:00,
2013-02-06 16:16:00,69.4,39.1,29.32,SE,139,5.4,5.4,33,0.00,,---,0.00,VWS V14.00,2013-02-06 22:16:00,
2013-02-06 16:18:00,69.4,39.1,29.32,SE,139,5.4,5.4,33,0.00,,---,0.00,VWS V14.00,2013-02-06 22:18:00,
2013-02-06 16:19:00,69.4,39.1,29.32,SE,139,5.4,5.4,33,0.00,,---,0.00,VWS V14.00,2013-02-06 22:19:00,
2013-02-06 16:21:00,69.4,39.1,29.32,SE,139,5.4,5.4,33,0.00,,---,0.00,VWS V14.00,2013-02-06 22:21:00,
2013-02-06 16:22:00,69.4,39.1,29.32,SE,139,5.4,5.4,33,0.00,,---,0.00,VWS V14.00,2013-02-06 22:22:00,
2013-02-06 16:23:00,69.4,39.1,29.32,SE,139,5.4,5.4,33,0.00,,---,0.00,VWS V14.00,2013-02-06 22:23:00,
2013-02-06 16:24:00,69.4,39.1,29.32,SE,139,5.4,5.4,33,0.00,,---,0.00,VWS V14.00,2013-02-06 22:24:00,
2013-02-06 16:26:00,69.4,39.1,29.32,South,190,5.4,5.4,33,0.00,,---,0.00,VWS V14.00,2013-02-06 22:26:00,
2013-02-06 16:27:00,69.4,39.1,29.32,South,190,5.4,5.4,33,0.00,,---,0.00,VWS V14.00,2013-02-06 22:27:00,
2013-02-06 16:28:00,69.4,39.1,29.32,South,190,5.4,5.4,33,0.00,,---,0.00,VWS V14.00,2013-02-06 22:28:00,
2013-02-06 16:29:00,69.4,39.1,29.32,South,190,5.4,5.4,33,0.00,,---,0.00,VWS V14.00,2013-02-06 22:29:00,
2013-02-06 16:31:00,69.4,39.1,29.29,SSE,158,4.0,4.0,33,0.00,,---,0.00,VWS V14.00,2013-02-06 22:31:00,
2013-02-06 16:32:00,69.4,39.1,29.29,SSE,158,4.0,4.0,33,0.00,,---,0.00,VWS V14.00,2013-02-06 22:32:00,
2013-02-06 16:33:00,69.4,39.1,29.29,SSW,204,6.3,6.3,33,0.00,,---,0.00,VWS V14.00,2013-02-06 22:33:00,
2013-02-06 16:34:00,69.4,39.1,29.29,SSW,204,6.3,6.3,33,0.00,,---,0.00,VWS V14.00,2013-02-06 22:34:00,
2013-02-06 16:37:00,69.4,39.1,29.29,SE,131,5.8,5.8,33,0.00,,---,0.00,VWS V14.00,2013-02-06 22:37:00,
2013-02-06 16:39:00,69.4,39.1,29.29,South,185,8.1,8.1,33,0.00,,---,0.00,VWS V14.00,2013-02-06 22:39:00,
2013-02-06 16:42:00,68.2,38.0,29.29,South,173,4.0,4.0,33,0.00,,---,0.00,VWS V14.00,2013-02-06 22:42:00,
2013-02-06 16:44:00,68.2,38.0,29.29,South,173,4.0,4.0,33,0.00,,---,0.00,VWS V14.00,2013-02-06 22:44:00,
2013-02-06 16:47:00,68.2,38.0,29.29,South,173,4.0,4.0,33,0.00,,---,0.00,VWS V14.00,2013-02-06 22:47:00,
2013-02-06 16:49:00,68.7,38.5,29.29,South,173,4.0,4.0,33,0.00,,---,0.00,VWS V14.00,2013-02-06 22:49:00,
2013-02-06 16:50:00,68.7,38.5,29.29,South,173,4.0,4.0,33,0.00,,---,0.00,VWS V14.00,2013-02-06 22:50:00,
2013-02-06 16:52:00,68.7,38.5,29.29,South,173,4.0,4.0,33,0.00,,---,0.00,VWS V14.00,2013-02-06 22:52:00,
2013-02-06 16:54:00,68.7,38.5,29.29,WSW,243,5.4,5.4,33,0.00,,---,0.00,VWS V14.00,2013-02-06 22:54:00,
2013-02-06 16:55:00,68.7,38.5,29.29,WSW,243,5.4,5.4,33,0.00,,---,0.00,VWS V14.00,2013-02-06 22:55:00,
2013-02-06 16:57:00,68.7,38.5,29.29,South,190,5.8,6.3,33,0.00,,---,0.00,VWS V14.00,2013-02-06 22:57:00,
2013-02-06 16:58:00,68.7,38.5,29.29,South,190,5.8,6.3,33,0.00,,---,0.00,VWS V14.00,2013-02-06 22:58:00,
2013-02-06 16:59:00,68.7,38.5,29.29,South,190,5.8,5.8,33,0.00,,---,0.00,VWS V14.00,2013-02-06 22:59:00,
2013-02-06 17:00:00,68.7,38.5,29.29,South,190,5.8,5.8,33,0.00,,---,0.00,VWS V14.00,2013-02-06 23:00:00,
2013-02-06 17:03:00,68.7,38.5,29.29,SSE,157,10.5,10.5,33,0.00,,---,0.00,VWS V14.00,2013-02-06 23:03:00,
2013-02-06 17:04:00,68.7,38.5,29.29,SSE,157,10.5,10.5,33,0.00,,---,0.00,VWS V14.00,2013-02-06 23:04:00,
2013-02-06 17:05:00,68.7,38.5,29.29,SSE,157,10.5,10.5,33,0.00,,---,0.00,VWS V14.00,2013-02-06 23:05:00,
2013-02-06 17:08:00,68.7,38.5,29.29,SSE,157,10.5,10.5,33,0.00,,---,0.00,VWS V14.00,2013-02-06 23:08:00,
2013-02-06 17:09:00,68.7,38.5,29.29,SSE,157,10.5,10.5,33,0.00,,---,0.00,VWS V14.00,2013-02-06 23:09:00,
2013-02-06 17:10:00,68.7,38.5,29.29,SSE,157,10.5,10.5,33,0.00,,---,0.00,VWS V14.00,2013-02-06 23:10:00,
2013-02-06 17:13:00,68.7,38.5,29.29,SSE,152,5.4,5.4,33,0.00,,---,0.00,VWS V14.00,2013-02-06 23:13:00,
2013-02-06 17:14:00,68.7,38.5,29.29,SSE,152,5.4,5.4,33,0.00,,---,0.00,VWS V14.00,2013-02-06 23:14:00,
2013-02-06 17:15:00,68.7,38.5,29.29,SSE,165,5.4,5.4,33,0.00,,---,0.00,VWS V14.00,2013-02-06 23:15:00,
2013-02-06 17:18:00,68.7,38.5,29.29,South,180,8.1,8.1,33,0.00,,---,0.00,VWS V14.00,2013-02-06 23:18:00,
2013-02-06 17:19:00,68.7,38.5,29.29,South,180,8.1,8.1,33,0.00,,---,0.00,VWS V14.00,2013-02-06 23:19:00,
2013-02-06 17:21:00,68.7,38.5,29.29,South,180,8.1,8.1,33,0.00,,---,0.00,VWS V14.00,2013-02-06 23:21:00,
2013-02-06 17:23:00,68.7,38.5,29.29,South,180,8.1,8.1,33,0.00,,---,0.00,VWS V14.00,2013-02-06 23:23:00,
2013-02-06 17:24:00,68.7,38.5,29.29,South,180,8.1,8.1,33,0.00,,---,0.00,VWS V14.00,2013-02-06 23:24:00,
2013-02-06 17:26:00,68.7,38.5,29.29,South,180,8.1,8.1,33,0.00,,---,0.00,VWS V14.00,2013-02-06 23:26:00,
2013-02-06 17:28:00,68.7,38.5,29.29,SSE,154,3.6,3.6,33,0.00,,---,0.00,VWS V14.00,2013-02-06 23:28:00,
2013-02-06 17:29:00,68.7,38.5,29.29,SSE,154,3.6,3.6,33,0.00,,---,0.00,VWS V14.00,2013-02-06 23:29:00,
2013-02-06 17:31:00,68.7,38.5,29.29,SSE,154,3.6,3.6,33,0.00,,---,0.00,VWS V14.00,2013-02-06 23:31:00,
2013-02-06 17:33:00,68.7,38.5,29.29,SSE,154,3.6,3.6,33,0.00,,---,0.00,VWS V14.00,2013-02-06 23:33:00,
2013-02-06 17:34:00,68.7,38.5,29.29,SSE,154,3.6,3.6,33,0.00,,---,0.00,VWS V14.00,2013-02-06 23:34:00,
2013-02-06 17:36:00,68.7,38.5,29.29,SSE,154,3.6,3.6,33,0.00,,---,0.00,VWS V14.00,2013-02-06 23:36:00,
2013-02-06 17:38:00,68.7,38.5,29.29,SSE,150,8.1,8.1,33,0.00,,---,0.00,VWS V14.00,2013-02-06 23:38:00,
2013-02-06 17:39:00,66.0,36.1,29.29,SSE,150,8.1,8.1,33,0.00,,---,0.00,VWS V14.00,2013-02-06 23:39:00,
2013-02-06 17:41:00,66.0,36.1,29.29,SSE,150,8.1,8.1,33,0.00,,---,0.00,VWS V14.00,2013-02-06 23:41:00,
2013-02-06 17:43:00,66.0,36.1,29.29,WSW,244,4.0,4.0,33,0.00,,---,0.00,VWS V14.00,2013-02-06 23:43:00,
2013-02-06 17:44:00,66.0,36.1,29.29,WSW,244,4.0,4.0,33,0.00,,---,0.00,VWS V14.00,2013-02-06 23:44:00,
2013-02-06 17:46:00,66.0,36.1,29.29,SSE,168,5.4,5.4,33,0.00,,---,0.00,VWS V14.00,2013-02-06 23:46:00,
2013-02-06 17:48:00,66.0,36.1,29.29,SSE,168,5.4,5.4,33,0.00,,---,0.00,VWS V14.00,2013-02-06 23:48:00,
2013-02-06 17:49:00,66.0,36.1,29.29,SSE,168,5.4,5.4,33,0.00,,---,0.00,VWS V14.00,2013-02-06 23:49:00,
2013-02-06 17:51:00,66.0,36.1,29.29,SSE,168,5.4,5.4,33,0.00,,---,0.00,VWS V14.00,2013-02-06 23:51:00,
2013-02-06 17:53:00,66.0,36.1,29.29,SSE,168,5.4,5.4,33,0.00,,---,0.00,VWS V14.00,2013-02-06 23:53:00,
2013-02-06 17:54:00,66.0,36.1,29.29,SSE,168,5.4,5.4,33,0.00,,---,0.00,VWS V14.00,2013-02-06 23:54:00,
2013-02-06 17:55:00,66.0,36.1,29.29,SSE,168,5.4,5.4,33,0.00,,---,0.00,VWS V14.00,2013-02-06 23:55:00,
2013-02-06 17:56:00,64.9,35.2,29.29,SSE,168,5.4,5.4,33,0.00,,---,0.00,VWS V14.00,2013-02-06 23:56:00,
2013-02-06 17:59:00,64.9,35.2,29.29,SSE,168,5.4,5.4,33,0.00,,---,0.00,VWS V14.00,2013-02-06 23:59:00,
2013-02-06 18:00:00,64.9,35.2,29.29,SSE,168,5.4,5.4,33,0.00,,---,0.00,VWS V14.00,2013-02-07 00:00:00,
2013-02-06 18:01:00,64.9,35.2,29.29,SSE,168,5.4,5.4,33,0.00,,---,0.00,VWS V14.00,2013-02-07 00:01:00,
2013-02-06 18:04:00,64.9,35.2,29.29,SSE,168,5.4,5.4,33,0.00,,---,0.00,VWS V14.00,2013-02-07 00:04:00,
2013-02-06 18:05:00,64.9,35.2,29.29,South,170,8.3,8.3,33,0.00,,---,0.00,VWS V14.00,2013-02-07 00:05:00,
2013-02-06 18:06:00,64.9,35.2,29.29,South,170,8.3,8.3,33,0.00,,---,0.00,VWS V14.00,2013-02-07 00:06:00,
2013-02-06 18:09:00,64.9,35.2,29.29,South,170,8.3,8.3,33,0.00,,---,0.00,VWS V14.00,2013-02-07 00:09:00,
2013-02-06 18:10:00,64.9,35.2,29.29,South,175,5.8,8.3,33,0.00,,---,0.00,VWS V14.00,2013-02-07 00:10:00,
2013-02-06 18:12:00,64.9,35.2,29.29,SSE,165,5.8,5.8,33,0.00,,---,0.00,VWS V14.00,2013-02-07 00:12:00,
2013-02-06 18:14:00,64.2,35.3,29.29,SE,146,6.3,6.3,34,0.00,,---,0.00,VWS V14.00,2013-02-07 00:14:00,
2013-02-06 18:15:00,64.0,35.1,29.29,SE,146,6.3,6.3,34,0.00,,---,0.00,VWS V14.00,2013-02-07 00:15:00,
2013-02-06 18:17:00,64.0,35.1,29.29,SE,146,6.3,6.3,34,0.00,,---,0.00,VWS V14.00,2013-02-07 00:17:00,
2013-02-06 18:19:00,63.9,35.0,29.29,SE,146,6.3,6.3,34,0.00,,---,0.00,VWS V14.00,2013-02-07 00:19:00,
2013-02-06 18:20:00,63.9,35.0,29.29,SE,146,6.3,6.3,34,0.00,,---,0.00,VWS V14.00,2013-02-07 00:20:00,
2013-02-06 18:22:00,63.9,35.0,29.29,SE,146,6.3,6.3,34,0.00,,---,0.00,VWS V14.00,2013-02-07 00:22:00,
2013-02-06 18:24:00,63.9,35.0,29.29,SSE,148,4.0,4.0,34,0.00,,---,0.00,VWS V14.00,2013-02-07 00:24:00,
2013-02-06 18:25:00,63.9,35.0,29.29,SSE,148,4.0,4.0,34,0.00,,---,0.00,VWS V14.00,2013-02-07 00:25:00,
2013-02-06 18:27:00,63.5,34.7,29.29,SE,137,5.8,5.8,34,0.00,,---,0.00,VWS V14.00,2013-02-07 00:27:00,
2013-02-06 18:29:00,63.5,34.7,29.29,SE,137,5.8,5.8,34,0.00,,---,0.00,VWS V14.00,2013-02-07 00:29:00,
2013-02-06 18:30:00,63.5,34.7,29.29,SE,137,5.8,5.8,34,0.00,,---,0.00,VWS V14.00,2013-02-07 00:30:00,
2013-02-06 18:32:00,63.5,34.7,29.29,SSE,154,7.6,7.6,34,0.00,,---,0.00,VWS V14.00,2013-02-07 00:32:00,
2013-02-06 18:34:00,63.5,34.7,29.29,SSE,154,7.6,7.6,34,0.00,,---,0.00,VWS V14.00,2013-02-07 00:34:00,
2013-02-06 18:35:00,63.5,34.7,29.29,SSE,154,7.6,7.6,34,0.00,,---,0.00,VWS V14.00,2013-02-07 00:35:00,
2013-02-06 18:37:00,63.5,34.7,29.29,SSE,165,4.0,8.1,34,0.00,,---,0.00,VWS V14.00,2013-02-07 00:37:00,
2013-02-06 18:39:00,63.5,34.7,29.29,SSE,165,4.0,4.0,34,0.00,,---,0.00,VWS V14.00,2013-02-07 00:39:00,
2013-02-06 18:40:00,63.5,34.7,29.29,SSE,165,4.0,4.0,34,0.00,,---,0.00,VWS V14.00,2013-02-07 00:40:00,
2013-02-06 18:42:00,63.3,34.5,29.29,SSE,157,4.9,4.9,34,0.00,,---,0.00,VWS V14.00,2013-02-07 00:42:00,
2013-02-06 18:44:00,63.3,34.5,29.29,SSE,157,4.9,4.9,34,0.00,,---,0.00,VWS V14.00,2013-02-07 00:44:00,
2013-02-06 18:45:00,63.3,34.5,29.29,SSE,157,4.9,4.9,34,0.00,,---,0.00,VWS V14.00,2013-02-07 00:45:00,
2013-02-06 18:47:00,63.3,34.5,29.29,SSE,157,4.9,4.9,34,0.00,,---,0.00,VWS V14.00,2013-02-07 00:47:00,
2013-02-06 18:49:00,63.3,34.5,29.29,SSE,168,12.8,12.8,34,0.00,,---,0.00,VWS V14.00,2013-02-07 00:49:00,
2013-02-06 18:50:00,63.3,34.5,29.29,SSE,168,12.8,12.8,34,0.00,,---,0.00,VWS V14.00,2013-02-07 00:50:00,
2013-02-06 18:52:00,63.3,34.5,29.32,SE,127,5.8,5.8,34,0.00,,---,0.00,VWS V14.00,2013-02-07 00:52:00,
2013-02-06 18:55:00,63.3,34.5,29.32,South,187,11.0,11.0,34,0.00,,---,0.00,VWS V14.00,2013-02-07 00:55:00,
2013-02-06 18:57:00,63.3,34.5,29.32,South,187,10.5,10.5,34,0.00,,---,0.00,VWS V14.00,2013-02-07 00:57:00,
2013-02-06 19:00:00,63.3,34.5,29.32,South,170,6.3,6.3,34,0.00,,---,0.00,VWS V14.00,2013-02-07 01:00:00,
2013-02-06 19:01:00,63.3,34.5,29.32,South,170,6.3,6.3,34,0.00,,---,0.00,VWS V14.00,2013-02-07 01:01:00,
2013-02-06 19:02:00,63.3,34.5,29.32,SSE,155,5.8,5.8,34,0.00,,---,0.00,VWS V14.00,2013-02-07 01:02:00,
2013-02-06 19:05:00,63.3,34.5,29.32,SSE,155,5.8,5.8,34,0.00,,---,0.00,VWS V14.00,2013-02-07 01:05:00,
2013-02-06 19:06:00,63.3,34.5,29.32,SSE,155,5.8,5.8,34,0.00,,---,0.00,VWS V14.00,2013-02-07 01:06:00,
2013-02-06 19:08:00,63.3,34.5,29.32,SW,216,4.0,4.0,34,0.00,,---,0.00,VWS V14.00,2013-02-07 01:08:00,
2013-02-06 19:10:00,63.3,34.5,29.32,SSE,154,6.3,6.3,34,0.00,,---,0.00,VWS V14.00,2013-02-07 01:10:00,
2013-02-06 19:11:00,63.3,34.5,29.32,SSE,154,6.3,6.3,34,0.00,,---,0.00,VWS V14.00,2013-02-07 01:11:00,
2013-02-06 19:13:00,63.3,34.5,29.32,SSE,154,6.3,6.3,34,0.00,,---,0.00,VWS V14.00,2013-02-07 01:13:00,
2013-02-06 19:15:00,63.3,34.5,29.32,SE,137,5.8,6.3,34,0.00,,---,0.00,VWS V14.00,2013-02-07 01:15:00,
2013-02-06 19:16:00,63.3,34.5,29.32,South,191,6.3,6.3,34,0.00,,---,0.00,VWS V14.00,2013-02-07 01:16:00,
2013-02-06 19:18:00,63.3,34.5,29.32,South,191,6.3,6.3,34,0.00,,---,0.00,VWS V14.00,2013-02-07 01:18:00,
2013-02-06 19:20:00,63.3,34.5,29.32,SE,133,6.3,6.3,34,0.00,,---,0.00,VWS V14.00,2013-02-07 01:20:00,
2013-02-06 19:21:00,63.3,34.5,29.32,SE,133,6.3,6.3,34,0.00,,---,0.00,VWS V14.00,2013-02-07 01:21:00,
2013-02-06 19:23:00,63.3,34.5,29.32,SSE,149,7.2,7.2,34,0.00,,---,0.00,VWS V14.00,2013-02-07 01:23:00,
2013-02-06 19:25:00,63.3,34.5,29.32,SSE,149,7.2,7.2,34,0.00,,---,0.00,VWS V14.00,2013-02-07 01:25:00,
2013-02-06 19:26:00,63.3,34.5,29.32,SSE,149,7.2,7.2,34,0.00,,---,0.00,VWS V14.00,2013-02-07 01:26:00,
2013-02-06 19:28:00,63.3,34.5,29.32,SSE,149,7.2,7.2,34,0.00,,---,0.00,VWS V14.00,2013-02-07 01:28:00,
2013-02-06 19:30:00,63.3,34.5,29.32,SSE,159,5.4,5.4,34,0.00,,---,0.00,VWS V14.00,2013-02-07 01:30:00,
2013-02-06 19:31:00,63.3,34.5,29.32,SSE,159,5.4,5.4,34,0.00,,---,0.00,VWS V14.00,2013-02-07 01:31:00,
2013-02-06 19:33:00,63.3,34.5,29.32,SSE,165,6.3,6.3,34,0.00,,---,0.00,VWS V14.00,2013-02-07 01:33:00,
2013-02-06 19:35:00,61.9,34.0,29.32,SE,144,5.8,6.3,35,0.00,,---,0.00,VWS V14.00,2013-02-07 01:35:00,
2013-02-06 19:36:00,61.9,34.0,29.32,SE,144,5.8,5.8,35,0.00,,---,0.00,VWS V14.00,2013-02-07 01:36:00,
2013-02-06 19:38:00,61.9,34.0,29.32,SE,144,5.8,5.8,35,0.00,,---,0.00,VWS V14.00,2013-02-07 01:38:00,
2013-02-06 19:40:00,61.9,34.0,29.32,SE,140,3.6,5.8,35,0.00,,---,0.00,VWS V14.00,2013-02-07 01:40:00,
2013-02-06 19:41:00,61.9,34.0,29.32,SE,140,3.6,3.6,35,0.00,,---,0.00,VWS V14.00,2013-02-07 01:41:00,
2013-02-06 19:43:00,61.9,34.0,29.32,SSE,147,8.3,8.3,35,0.00,,---,0.00,VWS V14.00,2013-02-07 01:43:00,
2013-02-06 19:46:00,61.5,33.6,29.32,SSE,147,8.3,8.3,35,0.00,,---,0.00,VWS V14.00,2013-02-07 01:46:00,
2013-02-06 19:48:00,61.5,33.6,29.32,SSE,157,7.6,10.5,35,0.00,,---,0.00,VWS V14.00,2013-02-07 01:48:00,
2013-02-06 19:51:00,61.5,33.6,29.32,SE,126,7.6,7.6,35,0.00,,---,0.00,VWS V14.00,2013-02-07 01:51:00,
2013-02-06 19:53:00,61.5,33.6,29.32,SE,126,7.6,7.6,35,0.00,,---,0.00,VWS V14.00,2013-02-07 01:53:00,
2013-02-06 19:56:00,61.5,33.6,29.32,SE,126,7.6,7.6,35,0.00,,---,0.00,VWS V14.00,2013-02-07 01:56:00,
2013-02-06 19:58:00,61.5,33.6,29.32,SE,145,10.1,11.0,35,0.00,,---,0.00,VWS V14.00,2013-02-07 01:58:00,
2013-02-06 20:01:00,61.0,33.2,29.32,SE,136,7.6,7.6,35,0.00,,---,0.00,VWS V14.00,2013-02-07 02:01:00,
2013-02-06 20:02:00,61.0,33.2,29.32,SE,136,7.6,7.6,35,0.00,,---,0.00,VWS V14.00,2013-02-07 02:02:00,
2013-02-06 20:03:00,61.0,33.2,29.32,SE,136,7.6,7.6,35,0.00,,---,0.00,VWS V14.00,2013-02-07 02:03:00,
2013-02-06 20:06:00,61.0,33.2,29.32,SE,136,7.6,7.6,35,0.00,,---,0.00,VWS V14.00,2013-02-07 02:06:00,
2013-02-06 20:07:00,61.0,33.2,29.32,SE,136,7.6,7.6,35,0.00,,---,0.00,VWS V14.00,2013-02-07 02:07:00,
2013-02-06 20:08:00,61.0,33.2,29.32,ESE,122,3.6,7.6,35,0.00,,---,0.00,VWS V14.00,2013-02-07 02:08:00,
2013-02-06 20:12:00,60.8,33.0,29.32,SE,140,8.3,8.3,35,0.00,,---,0.00,VWS V14.00,2013-02-07 02:12:00,
2013-02-06 20:13:00,60.8,33.0,29.32,SE,128,4.9,8.3,35,0.00,,---,0.00,VWS V14.00,2013-02-07 02:13:00,
2013-02-06 20:17:00,60.8,33.0,29.32,SSE,165,9.2,9.2,35,0.00,,---,0.00,VWS V14.00,2013-02-07 02:17:00,
2013-02-06 20:18:00,60.6,32.8,29.32,SSE,165,9.2,9.2,35,0.00,,---,0.00,VWS V14.00,2013-02-07 02:18:00,
2013-02-06 20:22:00,60.6,32.8,29.32,SSE,159,6.3,6.3,35,0.00,,---,0.00,VWS V14.00,2013-02-07 02:22:00,
2013-02-06 20:23:00,60.6,33.5,29.32,SSE,155,6.3,6.3,36,0.00,,---,0.00,VWS V14.00,2013-02-07 02:23:00,
2013-02-06 20:27:00,60.6,33.5,29.32,SSE,155,6.3,6.3,36,0.00,,---,0.00,VWS V14.00,2013-02-07 02:27:00,
2013-02-06 20:28:00,60.6,33.5,29.32,SSE,149,6.3,6.3,36,0.00,,---,0.00,VWS V14.00,2013-02-07 02:28:00,
2013-02-06 20:32:00,60.6,33.5,29.32,SSE,150,5.4,5.4,36,0.00,,---,0.00,VWS V14.00,2013-02-07 02:32:00,
2013-02-06 20:33:00,60.6,33.5,29.35,SSE,150,5.4,5.4,36,0.00,,---,0.00,VWS V14.00,2013-02-07 02:33:00,
2013-02-06 20:37:00,60.6,33.5,29.35,South,171,5.4,5.4,36,0.00,,---,0.00,VWS V14.00,2013-02-07 02:37:00,
2013-02-06 20:38:00,60.6,33.5,29.35,SE,145,3.6,5.4,36,0.00,,---,0.00,VWS V14.00,2013-02-07 02:38:00,
2013-02-06 20:42:00,60.6,33.5,29.35,SE,145,4.0,4.0,36,0.00,,---,0.00,VWS V14.00,2013-02-07 02:42:00,
2013-02-06 20:44:00,60.6,33.5,29.35,SE,145,4.0,4.0,36,0.00,,---,0.00,VWS V14.00,2013-02-07 02:44:00,
2013-02-06 20:47:00,60.6,33.5,29.35,SE,139,5.8,5.8,36,0.00,,---,0.00,VWS V14.00,2013-02-07 02:47:00,
2013-02-06 20:49:00,60.6,33.5,29.35,SE,139,5.8,5.8,36,0.00,,---,0.00,VWS V14.00,2013-02-07 02:49:00,
2013-02-06 20:52:00,60.6,33.5,29.35,ENE,69,8.7,8.7,36,0.00,,---,0.00,VWS V14.00,2013-02-07 02:52:00,
2013-02-06 20:53:00,60.6,33.5,29.35,ENE,69,8.7,8.7,36,0.00,,---,0.00,VWS V14.00,2013-02-07 02:53:00,
2013-02-06 20:54:00,60.6,33.5,29.35,ENE,69,8.7,8.7,36,0.00,,---,0.00,VWS V14.00,2013-02-07 02:54:00,
2013-02-06 20:57:00,60.6,33.5,29.35,SSE,167,6.3,6.3,36,0.00,,---,0.00,VWS V14.00,2013-02-07 02:57:00,
2013-02-06 20:58:00,60.6,33.5,29.35,SSE,167,6.3,6.3,36,0.00,,---,0.00,VWS V14.00,2013-02-07 02:58:00,
2013-02-06 20:59:00,60.6,33.5,29.35,SSE,167,6.3,6.3,36,0.00,,---,0.00,VWS V14.00,2013-02-07 02:59:00,
2013-02-06 21:02:00,60.6,33.5,29.35,South,171,3.1,6.3,36,0.00,,---,0.00,VWS V14.00,2013-02-07 03:02:00,
2013-02-06 21:03:00,60.6,33.5,29.35,South,171,3.1,3.1,36,0.00,,---,0.00,VWS V14.00,2013-02-07 03:03:00,
2013-02-06 21:04:00,60.6,33.5,29.35,South,171,3.1,3.1,36,0.00,,---,0.00,VWS V14.00,2013-02-07 03:04:00,
2013-02-06 21:08:00,60.6,33.5,29.35,South,175,4.0,4.0,36,0.00,,---,0.00,VWS V14.00,2013-02-07 03:08:00,
2013-02-06 21:10:00,60.6,33.5,29.35,SSE,159,8.1,8.1,36,0.00,,---,0.00,VWS V14.00,2013-02-07 03:10:00,
2013-02-06 21:13:00,60.3,33.2,29.35,SE,143,4.0,4.0,36,0.00,,---,0.00,VWS V14.00,2013-02-07 03:13:00,
2013-02-06 21:15:00,60.3,33.2,29.35,SE,143,4.0,4.0,36,0.00,,---,0.00,VWS V14.00,2013-02-07 03:15:00,
2013-02-06 21:18:00,60.3,33.2,29.35,SSE,164,6.3,6.3,36,0.00,,---,0.00,VWS V14.00,2013-02-07 03:18:00,
2013-02-06 21:20:00,60.3,33.2,29.35,SE,144,3.6,3.6,36,0.00,,---,0.00,VWS V14.00,2013-02-07 03:20:00,
2013-02-06 21:23:00,60.3,33.2,29.35,SE,133,5.8,5.8,36,0.00,,---,0.00,VWS V14.00,2013-02-07 03:23:00,
2013-02-06 21:25:00,60.3,33.2,29.35,SSE,164,3.1,3.1,36,0.00,,---,0.00,VWS V14.00,2013-02-07 03:25:00,
2013-02-06 21:28:00,60.3,33.2,29.35,SSE,164,3.1,3.1,36,0.00,,---,0.00,VWS V14.00,2013-02-07 03:28:00,
2013-02-06 21:30:00,60.3,33.2,29.35,SSE,164,3.1,3.1,36,0.00,,---,0.00,VWS V14.00,2013-02-07 03:30:00,
2013-02-06 21:33:00,60.3,33.2,29.35,SE,146,4.0,4.9,36,0.00,,---,0.00,VWS V14.00,2013-02-07 03:33:00,
2013-02-06 21:34:00,60.3,33.2,29.35,SE,146,4.0,4.0,36,0.00,,---,0.00,VWS V14.00,2013-02-07 03:34:00,
2013-02-06 21:35:00,60.1,33.1,29.35,SSE,157,6.3,8.3,36,0.00,,---,0.00,VWS V14.00,2013-02-07 03:35:00,
2013-02-06 21:38:00,60.1,33.1,29.35,SE,144,4.9,5.4,36,0.00,,---,0.00,VWS V14.00,2013-02-07 03:38:00,
2013-02-06 21:39:00,60.1,33.1,29.35,South,169,4.9,4.9,36,0.00,,---,0.00,VWS V14.00,2013-02-07 03:39:00,
2013-02-06 21:40:00,60.1,33.1,29.35,SSE,149,6.7,6.7,36,0.00,,---,0.00,VWS V14.00,2013-02-07 03:40:00,
2013-02-06 21:43:00,60.1,33.1,29.35,SSE,167,5.8,5.8,36,0.00,,---,0.00,VWS V14.00,2013-02-07 03:43:00,
2013-02-06 21:44:00,60.1,33.1,29.35,SSE,167,5.8,5.8,36,0.00,,---,0.00,VWS V14.00,2013-02-07 03:44:00,
2013-02-06 21:45:00,59.9,32.9,29.35,SE,133,5.8,5.8,36,0.00,,---,0.00,VWS V14.00,2013-02-07 03:45:00,
2013-02-06 21:48:00,59.9,32.9,29.35,SSE,149,7.6,7.6,36,0.00,,---,0.00,VWS V14.00,2013-02-07 03:48:00,
2013-02-06 21:49:00,59.9,32.9,29.35,SSE,149,7.6,7.6,36,0.00,,---,0.00,VWS V14.00,2013-02-07 03:49:00,
2013-02-06 21:50:00,59.9,32.9,29.35,SSE,150,4.9,7.6,36,0.00,,---,0.00,VWS V14.00,2013-02-07 03:50:00,
2013-02-06 21:54:00,59.9,32.9,29.35,SSE,152,4.0,4.0,36,0.00,,---,0.00,VWS V14.00,2013-02-07 03:54:00,
2013-02-06 21:55:00,59.9,32.9,29.35,SSE,163,6.3,6.3,36,0.00,,---,0.00,VWS V14.00,2013-02-07 03:55:00,
2013-02-06 21:59:00,59.9,32.9,29.35,SSE,164,4.0,4.0,36,0.00,,---,0.00,VWS V14.00,2013-02-07 03:59:00,
2013-02-06 22:00:00,59.9,32.9,29.35,SSE,159,3.1,4.9,36,0.00,,---,0.00,VWS V14.00,2013-02-07 04:00:00,
2013-02-06 22:04:00,59.9,32.9,29.35,SSE,153,4.0,4.0,36,0.00,,---,0.00,VWS V14.00,2013-02-07 04:04:00,
2013-02-06 22:06:00,59.9,32.9,29.35,SE,145,6.3,6.3,36,0.00,,---,0.00,VWS V14.00,2013-02-07 04:06:00,
2013-02-06 22:09:00,59.7,32.7,29.35,SSE,155,3.6,3.6,36,0.00,,---,0.00,VWS V14.00,2013-02-07 04:09:00,
2013-02-06 22:11:00,59.7,32.7,29.35,SSE,162,5.4,5.4,36,0.00,,---,0.00,VWS V14.00,2013-02-07 04:11:00,
2013-02-06 22:14:00,59.7,32.7,29.35,SE,146,3.6,3.6,36,0.00,,---,0.00,VWS V14.00,2013-02-07 04:14:00,
2013-02-06 22:15:00,59.7,32.7,29.35,SE,146,2.2,3.6,36,0.00,,---,0.00,VWS V14.00,2013-02-07 04:15:00,
2013-02-06 22:19:00,59.7,32.7,29.35,SSE,162,3.6,3.6,36,0.00,,---,0.00,VWS V14.00,2013-02-07 04:19:00,
2013-02-06 22:20:00,59.7,32.7,29.35,SSE,148,4.0,4.9,36,0.00,,---,0.00,VWS V14.00,2013-02-07 04:20:00,
2013-02-06 22:21:00,59.7,32.7,29.35,SSE,155,5.4,5.4,36,0.00,,---,0.00,VWS V14.00,2013-02-07 04:21:00,
2013-02-06 22:24:00,59.7,32.7,29.35,SSE,160,4.0,4.0,36,0.00,,---,0.00,VWS V14.00,2013-02-07 04:24:00,
2013-02-06 22:25:00,59.7,32.7,29.35,SSE,165,4.9,4.9,36,0.00,,---,0.00,VWS V14.00,2013-02-07 04:25:00,
2013-02-06 22:26:00,59.7,32.7,29.35,South,173,3.1,4.9,36,0.00,,---,0.00,VWS V14.00,2013-02-07 04:26:00,
2013-02-06 22:29:00,59.9,32.9,29.35,SSE,153,4.5,4.5,36,0.00,,---,0.00,VWS V14.00,2013-02-07 04:29:00,
2013-02-06 22:30:00,59.9,32.9,29.35,SSE,153,4.5,4.5,36,0.00,,---,0.00,VWS V14.00,2013-02-07 04:30:00,
2013-02-06 22:31:00,59.9,32.9,29.35,SSE,153,6.3,6.3,36,0.00,,---,0.00,VWS V14.00,2013-02-07 04:31:00,
2013-02-06 22:34:00,59.9,32.9,29.35,South,187,5.4,5.4,36,0.00,,---,0.00,VWS V14.00,2013-02-07 04:34:00,
2013-02-06 22:35:00,59.9,32.9,29.35,SSE,156,5.4,5.4,36,0.00,,---,0.00,VWS V14.00,2013-02-07 04:35:00,
2013-02-06 22:36:00,59.9,32.9,29.35,SSE,164,3.1,5.4,36,0.00,,---,0.00,VWS V14.00,2013-02-07 04:36:00,
2013-02-06 22:39:00,59.9,32.9,29.35,SSW,193,0.0,3.1,36,0.00,,---,0.00,VWS V14.00,2013-02-07 04:39:00,
2013-02-06 22:40:00,59.9,32.9,29.35,SSW,193,0.0,0.0,36,0.00,,---,0.00,VWS V14.00,2013-02-07 04:40:00,
2013-02-06 22:41:00,59.9,32.9,29.35,SSW,193,0.0,0.0,36,0.00,,---,0.00,VWS V14.00,2013-02-07 04:41:00,
2013-02-06 22:44:00,59.9,32.9,29.35,ESE,120,3.1,4.5,36,0.00,,---,0.00,VWS V14.00,2013-02-07 04:44:00,
2013-02-06 22:45:00,59.9,32.9,29.35,SSE,165,4.0,4.0,36,0.00,,---,0.00,VWS V14.00,2013-02-07 04:45:00,
2013-02-06 22:46:00,60.3,33.9,29.35,SSE,166,3.6,3.6,37,0.00,,---,0.00,VWS V14.00,2013-02-07 04:46:00,
2013-02-06 22:50:00,60.4,34.1,29.35,SSW,196,2.7,6.3,37,0.00,,---,0.00,VWS V14.00,2013-02-07 04:50:00,
2013-02-06 22:51:00,60.4,34.1,29.35,SSE,165,3.6,3.6,37,0.00,,---,0.00,VWS V14.00,2013-02-07 04:51:00,
2013-02-06 22:55:00,60.6,34.2,29.35,SSE,164,3.1,3.6,37,0.00,,---,0.00,VWS V14.00,2013-02-07 04:55:00,
2013-02-06 22:56:00,60.6,34.2,29.35,SSE,165,3.1,4.9,37,0.00,,---,0.00,VWS V14.00,2013-02-07 04:56:00,
2013-02-06 23:00:00,60.6,34.2,29.35,South,191,4.9,4.9,37,0.00,,---,0.00,VWS V14.00,2013-02-07 05:00:00,
2013-02-06 23:05:00,60.8,33.7,29.35,WSW,240,2.7,2.7,36,0.00,,---,0.00,VWS V14.00,2013-02-07 05:05:00,
2013-02-06 23:10:00,60.8,33.7,29.32,SSW,210,5.8,5.8,36,0.00,,---,0.00,VWS V14.00,2013-02-07 05:10:00,
2013-02-06 23:15:00,60.8,33.7,29.32,SSW,202,6.7,6.7,36,0.00,,---,0.00,VWS V14.00,2013-02-07 05:15:00,
2013-02-06 23:20:00,60.8,33.7,29.32,SSE,151,3.1,3.1,36,0.00,,---,0.00,VWS V14.00,2013-02-07 05:20:00,
2013-02-06 23:25:00,60.8,33.7,29.32,WSW,244,2.7,5.8,36,0.00,,---,0.00,VWS V14.00,2013-02-07 05:25:00,
2013-02-06 23:26:00,60.8,33.7,29.32,SW,230,3.6,5.8,36,0.00,,---,0.00,VWS V14.00,2013-02-07 05:26:00,
2013-02-06 23:30:00,60.8,33.7,29.32,SSW,194,3.6,3.6,36,0.00,,---,0.00,VWS V14.00,2013-02-07 05:30:00,
2013-02-06 23:31:00,60.8,33.7,29.32,South,179,6.3,6.3,36,0.00,,---,0.00,VWS V14.00,2013-02-07 05:31:00,
2013-02-06 23:35:00,60.8,33.7,29.32,SW,236,2.7,2.7,36,0.00,,---,0.00,VWS V14.00,2013-02-07 05:35:00,
2013-02-06 23:36:00,61.0,33.9,29.32,SW,236,2.7,2.7,36,0.00,,---,0.00,VWS V14.00,2013-02-07 05:36:00,
2013-02-06 23:40:00,61.0,33.9,29.32,SW,226,3.6,3.6,36,0.00,,---,0.00,VWS V14.00,2013-02-07 05:40:00,
2013-02-06 23:41:00,61.0,33.9,29.32,SSW,205,8.7,8.7,36,0.00,,---,0.00,VWS V14.00,2013-02-07 05:41:00,
2013-02-06 23:45:00,61.0,33.9,29.32,West,262,5.8,5.8,36,0.00,,---,0.00,VWS V14.00,2013-02-07 05:45:00,
2013-02-06 23:46:00,61.0,33.9,29.32,West,262,5.8,5.8,36,0.00,,---,0.00,VWS V14.00,2013-02-07 05:46:00,
2013-02-06 23:50:00,61.0,33.9,29.32,SW,231,3.1,3.1,36,0.00,,---,0.00,VWS V14.00,2013-02-07 05:50:00,
2013-02-06 23:51:00,61.0,33.9,29.32,SW,231,3.1,3.1,36,0.00,,---,0.00,VWS V14.00,2013-02-07 05:51:00,
2013-02-06 23:55:00,61.0,33.2,29.32,SSE,165,8.1,11.0,35,0.00,,---,0.00,VWS V14.00,2013-02-07 05:55:00,
2013-02-06 23:56:00,61.0,33.2,29.32,SSE,165,8.1,11.0,35,0.00,,---,0.00,VWS V14.00,2013-02-07 05:56:00,